Time,TemperatureF,DewpointF,PressureIn,WindDirection,WindDirectionDegrees,WindSpeedMPH,WindSpeedGustMPH,Humidity,HourlyPrecipIn,Conditions,Clouds,dailyrainin,SoftwareType,DateUTC
2013-01-24 00:02:00,0.5,-4.7,30.56,NNW,348,4.0,8.0,78,0.00,,,0.00,Wunderground v.1.15,2013-01-24 06:02:00,
2013-01-24 00:03:00,0.4,-4.6,30.56,NW,325,4.0,8.0,79,0.00,,,0.00,Wunderground v.1.15,2013-01-24 06:03:00,
2013-01-24 00:05:00,0.4,-4.8,30.56,North,355,4.0,8.0,78,0.00,,,0.00,Wunderground v.1.15,2013-01-24 06:05:00,
2013-01-24 00:06:00,0.4,-4.6,30.56,NW,309,4.0,4.0,79,0.00,,,0.00,Wunderground v.1.15,2013-01-24 06:06:00,
2013-01-24 00:10:00,0.3,-4.7,30.56,NNW,344,4.0,5.0,79,0.00,,,0.00,Wunderground v.1.15,2013-01-24 06:10:00,
2013-01-24 00:11:00,0.2,-4.8,30.56,NW,311,4.0,5.0,79,0.00,,,0.00,Wunderground v.1.15,2013-01-24 06:11:00,
2013-01-24 00:12:00,0.2,-4.8,30.56,WNW,293,4.0,5.0,79,0.00,,,0.00,Wunderground v.1.15,2013-01-24 06:12:00,
2013-01-24 00:15:00,0.2,-4.8,30.57,NNW,343,4.0,5.0,79,0.00,,,0.00,Wunderground v.1.15,2013-01-24 06:15:00,
2013-01-24 00:17:00,0.1,-4.9,30.56,NW,311,4.0,4.0,79,0.00,,,0.00,Wunderground v.1.15,2013-01-24 06:17:00,
2013-01-24 00:20:00,0.1,-4.9,30.56,NW,319,3.0,4.0,79,0.00,,,0.00,Wunderground v.1.15,2013-01-24 06:20:00,
2013-01-24 00:22:00,0.1,-4.9,30.56,NW,304,3.0,8.0,79,0.00,,,0.00,Wunderground v.1.15,2013-01-24 06:22:00,
2013-01-24 00:25:00,0.0,-5.0,30.56,NW,324,3.0,8.0,79,0.00,,,0.00,Wunderground v.1.15,2013-01-24 06:25:00,
2013-01-24 00:30:00,0.1,-4.6,30.57,WNW,286,3.0,13.0,80,0.00,,,0.00,Wunderground v.1.15,2013-01-24 06:30:00,
2013-01-24 00:31:00,0.0,-4.7,30.57,North,351,3.0,13.0,80,0.00,,,0.00,Wunderground v.1.15,2013-01-24 06:31:00,
2013-01-24 00:32:00,0.0,-4.7,30.57,NW,319,3.0,13.0,80,0.00,,,0.00,Wunderground v.1.15,2013-01-24 06:32:00,
2013-01-24 00:36:00,0.0,-4.7,30.57,NW,315,3.0,3.0,80,0.00,,,0.00,Wunderground v.1.15,2013-01-24 06:36:00,
2013-01-24 00:37:00,0.3,-4.0,30.57,NW,315,2.0,-999.0,81,-99.99,,,0.00,weatherlink.com 1.10,2013-01-24 06:37:00,
2013-01-24 00:42:00,0.4,-3.8,30.58,NW,323,3.0,13.0,82,0.00,,,0.00,Wunderground v.1.15,2013-01-24 06:42:00,
2013-01-24 00:43:00,0.2,-4.0,30.58,NW,325,3.0,13.0,82,0.00,,,0.00,Wunderground v.1.15,2013-01-24 06:43:00,
2013-01-24 00:46:00,0.0,-4.4,30.58,NNW,330,3.0,3.0,81,0.00,,,0.00,Wunderground v.1.15,2013-01-24 06:46:00,
2013-01-24 00:47:00,0.0,-4.7,30.58,North,355,3.0,4.0,80,0.00,,,0.00,Wunderground v.1.15,2013-01-24 06:47:00,
2013-01-24 00:48:00,-0.1,-4.8,30.58,NW,308,3.0,13.0,80,0.00,,,0.00,Wunderground v.1.15,2013-01-24 06:48:00,
2013-01-24 00:52:00,-0.4,-5.1,30.59,NNW,335,3.0,13.0,80,0.00,,,0.00,Wunderground v.1.15,2013-01-24 06:52:00,
2013-01-24 00:53:00,-0.5,-5.0,30.59,NNW,342,3.0,-999.0,80,-99.99,,,0.00,weatherlink.com 1.10,2013-01-24 06:53:00,
2013-01-24 00:58:00,-0.3,-4.7,30.59,NNW,335,3.0,3.0,81,0.00,,,0.00,Wunderground v.1.15,2013-01-24 06:58:00,
2013-01-24 00:59:00,-0.2,-4.1,30.59,NNW,334,2.0,3.0,83,0.00,,,0.00,Wunderground v.1.15,2013-01-24 06:59:00,
2013-01-24 01:02:00,-0.1,-4.0,30.59,West,259,2.0,4.0,83,0.00,,,0.00,Wunderground v.1.15,2013-01-24 07:02:00,
2013-01-24 01:03:00,-0.2,-4.4,30.60,NNW,348,2.0,6.0,82,0.00,,,0.00,Wunderground v.1.15,2013-01-24 07:03:00,
2013-01-24 01:05:00,-0.5,-4.9,30.60,North,360,3.0,6.0,81,0.00,,,0.00,Wunderground v.1.15,2013-01-24 07:05:00,
2013-01-24 01:08:00,-0.7,-5.4,30.60,West,261,3.0,5.0,80,0.00,,,0.00,Wunderground v.1.15,2013-01-24 07:08:00,
2013-01-24 01:09:00,-0.5,-5.2,30.60,NNW,346,3.0,5.0,80,0.00,,,0.00,Wunderground v.1.15,2013-01-24 07:09:00,
2013-01-24 01:14:00,-0.3,-4.5,30.60,NW,323,3.0,5.0,82,0.00,,,0.00,Wunderground v.1.15,2013-01-24 07:14:00,
2013-01-24 01:15:00,-0.3,-4.5,30.59,WNW,289,3.0,5.0,82,0.00,,,0.00,Wunderground v.1.15,2013-01-24 07:15:00,
2013-01-24 01:17:00,-0.3,-4.5,30.60,NW,309,3.0,3.0,82,0.00,,,0.00,Wunderground v.1.15,2013-01-24 07:17:00,
2013-01-24 01:21:00,0.0,-3.7,30.60,West,271,2.0,4.0,84,0.00,,,0.00,Wunderground v.1.15,2013-01-24 07:21:00,
2013-01-24 01:23:00,0.0,-4.0,30.60,NNW,343,4.0,-999.0,83,-99.99,,,0.00,weatherlink.com 1.10,2013-01-24 07:23:00,
2013-01-24 01:27:00,0.1,-3.8,30.61,NNW,341,3.0,10.0,83,0.00,,,0.00,Wunderground v.1.15,2013-01-24 07:27:00,
2013-01-24 01:28:00,0.0,-3.9,30.61,North,355,3.0,10.0,83,0.00,,,0.00,Wunderground v.1.15,2013-01-24 07:28:00,
2013-01-24 01:32:00,-0.5,-4.7,30.61,NW,319,2.0,10.0,82,0.00,,,0.00,Wunderground v.1.15,2013-01-24 07:32:00,
2013-01-24 01:34:00,-0.7,-4.9,30.61,NNW,341,3.0,10.0,82,0.00,,,0.00,Wunderground v.1.15,2013-01-24 07:34:00,
2013-01-24 01:36:00,-0.9,-5.3,30.61,NNW,348,3.0,10.0,81,0.00,,,0.00,Wunderground v.1.15,2013-01-24 07:36:00,
2013-01-24 01:38:00,-1.0,-5.0,30.61,West,279,2.0,-999.0,82,-99.99,,,0.00,weatherlink.com 1.10,2013-01-24 07:38:00,
2013-01-24 01:43:00,-1.2,-5.4,30.61,NNW,348,4.0,10.0,82,0.00,,,0.00,Wunderground v.1.15,2013-01-24 07:43:00,
2013-01-24 01:45:00,-0.9,-4.6,30.61,WNW,292,3.0,10.0,84,0.00,,,0.00,Wunderground v.1.15,2013-01-24 07:45:00,
2013-01-24 01:49:00,-0.6,-4.3,30.61,NNW,340,4.0,10.0,84,0.00,,,0.00,Wunderground v.1.15,2013-01-24 07:49:00,
2013-01-24 01:51:00,-0.8,-4.7,30.61,NW,307,4.0,10.0,83,0.00,,,0.00,Wunderground v.1.15,2013-01-24 07:51:00,
2013-01-24 01:52:00,-1.0,-4.9,30.61,NW,306,4.0,10.0,83,0.00,,,0.00,Wunderground v.1.15,2013-01-24 07:52:00,
2013-01-24 01:55:00,-1.0,-4.9,30.62,NW,308,4.0,10.0,83,0.00,,,0.00,Wunderground v.1.15,2013-01-24 07:55:00,
2013-01-24 01:57:00,-1.0,-4.9,30.61,NNW,331,4.0,4.0,83,0.00,,,0.00,Wunderground v.1.15,2013-01-24 07:57:00,
2013-01-24 01:58:00,-1.0,-4.9,30.61,North,355,4.0,5.0,83,0.00,,,0.00,Wunderground v.1.15,2013-01-24 07:58:00,
2013-01-24 02:01:00,-1.0,-4.9,30.62,NNW,338,4.0,5.0,83,0.00,,,0.00,Wunderground v.1.15,2013-01-24 08:01:00,
2013-01-24 02:06:00,-0.7,-4.4,30.62,North,360,3.0,8.0,84,0.00,,,0.00,Wunderground v.1.15,2013-01-24 08:06:00,
2013-01-24 02:07:00,-0.7,-4.4,30.62,North,355,3.0,8.0,84,0.00,,,0.00,Wunderground v.1.15,2013-01-24 08:07:00,
2013-01-24 02:08:00,-0.9,-4.6,30.62,NNW,334,3.0,8.0,84,0.00,,,0.00,Wunderground v.1.15,2013-01-24 08:08:00,
2013-01-24 02:09:00,-1.1,-5.0,30.62,NW,324,1.0,-999.0,82,-99.99,,,0.00,weatherlink.com 1.10,2013-01-24 08:09:00,
2013-01-24 02:14:00,-1.0,-4.9,30.62,NNW,338,3.0,8.0,83,0.00,,,0.00,Wunderground v.1.15,2013-01-24 08:14:00,
2013-01-24 02:15:00,-0.9,-4.6,30.61,NNW,340,3.0,8.0,84,0.00,,,0.00,Wunderground v.1.15,2013-01-24 08:15:00,
2013-01-24 02:17:00,-1.1,-5.0,30.62,NW,319,3.0,3.0,83,0.00,,,0.00,Wunderground v.1.15,2013-01-24 08:17:00,
2013-01-24 02:19:00,-1.1,-4.8,30.62,NNW,327,3.0,4.0,84,0.00,,,0.00,Wunderground v.1.15,2013-01-24 08:19:00,
2013-01-24 02:21:00,-1.2,-5.1,30.62,West,278,3.0,5.0,83,0.00,,,0.00,Wunderground v.1.15,2013-01-24 08:21:00,
2013-01-24 02:22:00,-1.3,-5.2,30.62,West,279,3.0,5.0,83,0.00,,,0.00,Wunderground v.1.15,2013-01-24 08:22:00,
2013-01-24 02:25:00,-1.7,-5.9,30.62,North,5,4.0,6.0,82,0.00,,,0.00,Wunderground v.1.15,2013-01-24 08:25:00,
2013-01-24 02:27:00,-1.9,-6.1,30.62,NNW,333,4.0,9.0,82,0.00,,,0.00,Wunderground v.1.15,2013-01-24 08:27:00,
2013-01-24 02:28:00,-1.8,-6.0,30.62,WNW,284,3.0,9.0,82,0.00,,,0.00,Wunderground v.1.15,2013-01-24 08:28:00,
2013-01-24 02:33:00,-1.8,-5.7,30.63,NNW,348,4.0,9.0,83,0.00,,,0.00,Wunderground v.1.15,2013-01-24 08:33:00,
2013-01-24 02:34:00,-1.8,-5.7,30.63,North,5,4.0,9.0,83,0.00,,,0.00,Wunderground v.1.15,2013-01-24 08:34:00,
2013-01-24 02:37:00,-1.8,-5.7,30.63,NW,315,4.0,9.0,83,0.00,,,0.00,Wunderground v.1.15,2013-01-24 08:37:00,
2013-01-24 02:39:00,-2.0,-5.9,30.63,NW,304,4.0,9.0,83,0.00,,,0.00,Wunderground v.1.15,2013-01-24 08:39:00,
2013-01-24 02:40:00,-2.1,-6.2,30.63,North,351,4.0,9.0,82,0.00,,,0.00,Wunderground v.1.15,2013-01-24 08:40:00,
2013-01-24 02:43:00,-2.1,-6.2,30.63,North,9,4.0,9.0,82,0.00,,,0.00,Wunderground v.1.15,2013-01-24 08:43:00,
2013-01-24 02:46:00,-1.8,-5.5,30.63,NNW,331,4.0,4.0,84,0.00,,,0.00,Wunderground v.1.15,2013-01-24 08:46:00,
2013-01-24 02:48:00,-1.9,-5.8,30.63,NNW,327,4.0,9.0,83,0.00,,,0.00,Wunderground v.1.15,2013-01-24 08:48:00,
2013-01-24 02:51:00,-1.8,-5.7,30.63,NNW,333,3.0,9.0,83,0.00,,,0.00,Wunderground v.1.15,2013-01-24 08:51:00,
2013-01-24 02:54:00,-1.9,-6.0,30.63,NW,325,1.0,-999.0,83,-99.99,,,0.00,weatherlink.com 1.10,2013-01-24 08:54:00,
2013-01-24 02:57:00,-1.9,-5.8,30.63,NW,325,3.0,3.0,83,0.00,,,0.00,Wunderground v.1.15,2013-01-24 08:57:00,
2013-01-24 02:59:00,-1.7,-5.4,30.64,NW,309,3.0,3.0,84,0.00,,,0.00,Wunderground v.1.15,2013-01-24 08:59:00,
2013-01-24 03:02:00,-1.8,-5.5,30.64,NW,313,3.0,4.0,84,0.00,,,0.00,Wunderground v.1.15,2013-01-24 09:02:00,
2013-01-24 03:03:00,-1.8,-5.5,30.63,NNW,338,3.0,4.0,84,0.00,,,0.00,Wunderground v.1.15,2013-01-24 09:03:00,
2013-01-24 03:05:00,-1.9,-5.6,30.63,NW,318,3.0,4.0,84,0.00,,,0.00,Wunderground v.1.15,2013-01-24 09:05:00,
2013-01-24 03:08:00,-2.0,-5.6,30.64,NNW,336,3.0,10.0,84,0.00,,,0.00,Wunderground v.1.15,2013-01-24 09:08:00,
2013-01-24 03:10:00,-2.3,-6.2,30.64,NNW,340,4.0,10.0,83,0.00,,,0.00,Wunderground v.1.15,2013-01-24 09:10:00,
2013-01-24 03:12:00,-2.7,-6.8,30.64,NW,304,4.0,10.0,82,0.00,,,0.00,Wunderground v.1.15,2013-01-24 09:12:00,
2013-01-24 03:17:00,-1.7,-5.1,30.64,NW,311,4.0,6.0,85,0.00,,,0.00,Wunderground v.1.15,2013-01-24 09:17:00,
2013-01-24 03:20:00,-2.0,-5.6,30.64,NNW,348,4.0,6.0,84,0.00,,,0.00,Wunderground v.1.15,2013-01-24 09:20:00,
2013-01-24 03:22:00,-2.2,-5.8,30.64,NW,319,4.0,9.0,84,0.00,,,0.00,Wunderground v.1.15,2013-01-24 09:22:00,
2013-01-24 03:23:00,-2.2,-6.0,30.64,SW,234,6.0,-999.0,83,-99.99,,,0.00,weatherlink.com 1.10,2013-01-24 09:23:00,
2013-01-24 03:26:00,-1.8,-5.2,30.64,NNW,347,3.0,3.0,85,0.00,,,0.00,Wunderground v.1.15,2013-01-24 09:26:00,
2013-01-24 03:28:00,-1.6,-5.0,30.64,NNW,336,3.0,11.0,85,0.00,,,0.00,Wunderground v.1.15,2013-01-24 09:28:00,
2013-01-24 03:29:00,-1.7,-5.1,30.64,NW,322,3.0,11.0,85,0.00,,,0.00,Wunderground v.1.15,2013-01-24 09:29:00,
2013-01-24 03:33:00,-2.1,-5.7,30.65,NE,38,3.0,11.0,84,0.00,,,0.00,Wunderground v.1.15,2013-01-24 09:33:00,
2013-01-24 03:34:00,-2.2,-6.1,30.65,NNW,340,3.0,11.0,83,0.00,,,0.00,Wunderground v.1.15,2013-01-24 09:34:00,
2013-01-24 03:37:00,-2.4,-6.3,30.65,NNW,328,3.0,11.0,83,0.00,,,0.00,Wunderground v.1.15,2013-01-24 09:37:00,
2013-01-24 03:39:00,-2.4,-6.3,30.65,NNW,342,3.0,11.0,83,0.00,,,0.00,Wunderground v.1.15,2013-01-24 09:39:00,
2013-01-24 03:43:00,-2.1,-5.7,30.65,NNW,333,4.0,11.0,84,0.00,,,0.00,Wunderground v.1.15,2013-01-24 09:43:00,
2013-01-24 03:44:00,-2.2,-5.8,30.65,West,265,4.0,11.0,84,0.00,,,0.00,Wunderground v.1.15,2013-01-24 09:44:00,
2013-01-24 03:47:00,-2.3,-6.2,30.65,North,360,4.0,5.0,83,0.00,,,0.00,Wunderground v.1.15,2013-01-24 09:47:00,
2013-01-24 03:49:00,-2.4,-6.3,30.65,NNW,338,4.0,11.0,83,0.00,,,0.00,Wunderground v.1.15,2013-01-24 09:49:00,
2013-01-24 03:51:00,-2.3,-6.2,30.65,North,351,4.0,11.0,83,0.00,,,0.00,Wunderground v.1.15,2013-01-24 09:51:00,
2013-01-24 03:54:00,-2.3,-5.9,30.65,NNW,340,4.0,11.0,84,0.00,,,0.00,Wunderground v.1.15,2013-01-24 09:54:00,
2013-01-24 03:55:00,-2.2,-5.8,30.66,West,265,4.0,11.0,84,0.00,,,0.00,Wunderground v.1.15,2013-01-24 09:55:00,
2013-01-24 03:57:00,-2.3,-5.9,30.66,NW,312,4.0,4.0,84,0.00,,,0.00,Wunderground v.1.15,2013-01-24 09:57:00,
2013-01-24 03:58:00,-2.3,-6.2,30.66,NW,314,3.0,4.0,83,0.00,,,0.00,Wunderground v.1.15,2013-01-24 09:58:00,
2013-01-24 04:01:00,-2.4,-6.3,30.66,NNW,327,4.0,4.0,83,0.00,,,0.00,Wunderground v.1.15,2013-01-24 10:01:00,
2013-01-24 04:02:00,-2.3,-6.2,30.66,NNW,332,4.0,4.0,83,0.00,,,0.00,Wunderground v.1.15,2013-01-24 10:02:00,
2013-01-24 04:04:00,-1.4,-4.8,30.66,NNW,345,3.0,4.0,85,0.00,,,0.00,Wunderground v.1.15,2013-01-24 10:04:00,
2013-01-24 04:07:00,-1.5,-4.7,30.66,NNW,333,3.0,6.0,86,0.00,,,0.00,Wunderground v.1.15,2013-01-24 10:07:00,
2013-01-24 04:12:00,-1.9,-5.6,30.66,WNW,295,3.0,6.0,84,0.00,,,0.00,Wunderground v.1.15,2013-01-24 10:12:00,
2013-01-24 04:14:00,-1.9,-5.6,30.66,NNW,329,3.0,6.0,84,0.00,,,0.00,Wunderground v.1.15,2013-01-24 10:14:00,
2013-01-24 04:15:00,-1.9,-5.6,30.66,NW,323,3.0,6.0,84,0.00,,,0.00,Wunderground v.1.15,2013-01-24 10:15:00,
2013-01-24 04:18:00,-2.1,-5.7,30.67,NNW,327,3.0,4.0,84,0.00,,,0.00,Wunderground v.1.15,2013-01-24 10:18:00,
2013-01-24 04:19:00,-2.0,-5.6,30.67,NNW,338,3.0,4.0,84,0.00,,,0.00,Wunderground v.1.15,2013-01-24 10:19:00,
2013-01-24 04:20:00,-1.9,-5.6,30.67,NNW,336,3.0,4.0,84,0.00,,,0.00,Wunderground v.1.15,2013-01-24 10:20:00,
2013-01-24 04:24:00,-0.8,-4.0,30.67,NW,319,3.0,-999.0,87,-99.99,,,0.00,weatherlink.com 1.10,2013-01-24 10:24:00,
2013-01-24 04:25:00,-1.0,-4.2,30.67,NW,318,3.0,4.0,86,0.00,,,0.00,Wunderground v.1.15,2013-01-24 10:25:00,
2013-01-24 04:27:00,-1.2,-4.6,30.67,North,355,3.0,10.0,85,0.00,,,0.00,Wunderground v.1.15,2013-01-24 10:27:00,
2013-01-24 04:30:00,-1.0,-4.4,30.67,NW,319,2.0,10.0,85,0.00,,,0.00,Wunderground v.1.15,2013-01-24 10:30:00,
2013-01-24 04:32:00,-1.0,-4.4,30.67,NNW,340,2.0,10.0,85,0.00,,,0.00,Wunderground v.1.15,2013-01-24 10:32:00,
2013-01-24 04:33:00,-1.2,-4.6,30.68,WSW,252,3.0,10.0,85,0.00,,,0.00,Wunderground v.1.15,2013-01-24 10:33:00,
2013-01-24 04:35:00,-1.3,-5.0,30.68,NW,324,2.0,10.0,84,0.00,,,0.00,Wunderground v.1.15,2013-01-24 10:35:00,
2013-01-24 04:38:00,-1.4,-5.1,30.68,NNW,330,2.0,10.0,84,0.00,,,0.00,Wunderground v.1.15,2013-01-24 10:38:00,
2013-01-24 04:41:00,-1.5,-4.9,30.68,WNW,285,2.0,10.0,85,0.00,,,0.00,Wunderground v.1.15,2013-01-24 10:41:00,
2013-01-24 04:42:00,-1.8,-5.5,30.68,NW,318,2.0,10.0,84,0.00,,,0.00,Wunderground v.1.15,2013-01-24 10:42:00,
2013-01-24 04:46:00,-1.9,-5.6,30.68,NW,325,2.0,10.0,84,0.00,,,0.00,Wunderground v.1.15,2013-01-24 10:46:00,
2013-01-24 04:47:00,-1.9,-5.6,30.68,NNW,343,2.0,10.0,84,0.00,,,0.00,Wunderground v.1.15,2013-01-24 10:47:00,
2013-01-24 04:48:00,-1.9,-5.6,30.68,NNW,342,2.0,10.0,84,0.00,,,0.00,Wunderground v.1.15,2013-01-24 10:48:00,
2013-01-24 04:50:00,-2.0,-5.6,30.69,NNW,346,3.0,10.0,84,0.00,,,0.00,Wunderground v.1.15,2013-01-24 10:50:00,
2013-01-24 04:52:00,-2.2,-5.8,30.69,NNW,348,2.0,10.0,84,0.00,,,0.00,Wunderground v.1.15,2013-01-24 10:52:00,
2013-01-24 04:53:00,-2.2,-5.8,30.69,NW,311,3.0,10.0,84,0.00,,,0.00,Wunderground v.1.15,2013-01-24 10:53:00,
2013-01-24 04:54:00,-2.1,-5.7,30.69,NW,312,2.0,10.0,84,0.00,,,0.00,Wunderground v.1.15,2013-01-24 10:54:00,
2013-01-24 04:58:00,-1.9,-5.3,30.69,WNW,292,3.0,3.0,85,0.00,,,0.00,Wunderground v.1.15,2013-01-24 10:58:00,
2013-01-24 04:59:00,-1.9,-5.3,30.69,NW,320,2.0,4.0,85,0.00,,,0.00,Wunderground v.1.15,2013-01-24 10:59:00,
2013-01-24 05:01:00,-2.0,-5.6,30.69,NNW,336,3.0,6.0,84,0.00,,,0.00,Wunderground v.1.15,2013-01-24 11:01:00,
2013-01-24 05:03:00,-1.9,-5.3,30.69,NNW,336,2.0,6.0,85,0.00,,,0.00,Wunderground v.1.15,2013-01-24 11:03:00,
2013-01-24 05:04:00,-1.9,-5.3,30.69,NNW,338,2.0,6.0,85,0.00,,,0.00,Wunderground v.1.15,2013-01-24 11:04:00,
2013-01-24 05:07:00,-2.0,-5.6,30.69,NNW,336,2.0,7.0,84,0.00,,,0.00,Wunderground v.1.15,2013-01-24 11:07:00,
2013-01-24 05:10:00,-1.8,-5.2,30.69,North,11,2.0,7.0,85,0.00,,,0.00,Wunderground v.1.15,2013-01-24 11:10:00,
2013-01-24 05:12:00,-1.8,-5.2,30.69,NW,322,2.0,7.0,85,0.00,,,0.00,Wunderground v.1.15,2013-01-24 11:12:00,
2013-01-24 05:16:00,-1.5,-4.9,30.69,NW,320,2.0,2.0,85,0.00,,,0.00,Wunderground v.1.15,2013-01-24 11:16:00,
2013-01-24 05:17:00,-1.6,-5.0,30.69,NW,323,2.0,2.0,85,0.00,,,0.00,Wunderground v.1.15,2013-01-24 11:17:00,
2013-01-24 05:18:00,-1.7,-5.1,30.69,North,350,2.0,5.0,85,0.00,,,0.00,Wunderground v.1.15,2013-01-24 11:18:00,
2013-01-24 05:20:00,-1.8,-5.5,30.69,NW,306,2.0,5.0,84,0.00,,,0.00,Wunderground v.1.15,2013-01-24 11:20:00,
2013-01-24 05:22:00,-2.0,-5.6,30.69,NW,314,2.0,5.0,84,0.00,,,0.00,Wunderground v.1.15,2013-01-24 11:22:00,
2013-01-24 05:25:00,-2.2,-5.8,30.70,NNW,334,2.0,5.0,84,0.00,,,0.00,Wunderground v.1.15,2013-01-24 11:25:00,
2013-01-24 05:26:00,-2.3,-5.9,30.70,NNW,340,2.0,4.0,84,0.00,,,0.00,Wunderground v.1.15,2013-01-24 11:26:00,
2013-01-24 05:29:00,-2.5,-6.1,30.70,NNW,337,3.0,9.0,84,0.00,,,0.00,Wunderground v.1.15,2013-01-24 11:29:00,
2013-01-24 05:30:00,-2.6,-6.2,30.70,NNW,337,2.0,9.0,84,0.00,,,0.00,Wunderground v.1.15,2013-01-24 11:30:00,
2013-01-24 05:32:00,-2.5,-6.1,30.70,NNW,335,2.0,9.0,84,0.00,,,0.00,Wunderground v.1.15,2013-01-24 11:32:00,
2013-01-24 05:33:00,-2.5,-5.9,30.70,NNW,328,2.0,9.0,85,0.00,,,0.00,Wunderground v.1.15,2013-01-24 11:33:00,
2013-01-24 05:35:00,-2.5,-5.9,30.70,NNW,338,2.0,9.0,85,0.00,,,0.00,Wunderground v.1.15,2013-01-24 11:35:00,
2013-01-24 05:37:00,-2.5,-5.9,30.70,NNW,333,2.0,6.0,85,0.00,,,0.00,Wunderground v.1.15,2013-01-24 11:37:00,
2013-01-24 05:38:00,-2.3,-5.7,30.70,NNW,339,2.0,9.0,85,0.00,,,0.00,Wunderground v.1.15,2013-01-24 11:38:00,
2013-01-24 05:42:00,-1.9,-5.3,30.69,NNW,340,2.0,9.0,85,0.00,,,0.00,Wunderground v.1.15,2013-01-24 11:42:00,
2013-01-24 05:43:00,-1.9,-5.3,30.69,NNW,332,2.0,9.0,85,0.00,,,0.00,Wunderground v.1.15,2013-01-24 11:43:00,
2013-01-24 05:44:00,-1.9,-5.3,30.69,NW,325,2.0,9.0,85,0.00,,,0.00,Wunderground v.1.15,2013-01-24 11:44:00,
2013-01-24 05:45:00,-1.9,-5.3,30.69,NW,325,2.0,9.0,85,0.00,,,0.00,Wunderground v.1.15,2013-01-24 11:45:00,
2013-01-24 05:50:00,-1.9,-5.3,30.69,NNW,333,2.0,9.0,85,0.00,,,0.00,Wunderground v.1.15,2013-01-24 11:50:00,
2013-01-24 05:51:00,-1.8,-5.2,30.69,NNW,331,2.0,9.0,85,0.00,,,0.00,Wunderground v.1.15,2013-01-24 11:51:00,
2013-01-24 05:52:00,-1.8,-5.2,30.70,NE,39,2.0,9.0,85,0.00,,,0.00,Wunderground v.1.15,2013-01-24 11:52:00,
2013-01-24 05:57:00,-1.9,-5.3,30.70,NNW,339,2.0,2.0,85,0.00,,,0.00,Wunderground v.1.15,2013-01-24 11:57:00,
2013-01-24 05:58:00,-1.9,-5.3,30.71,NNW,344,2.0,5.0,85,0.00,,,0.00,Wunderground v.1.15,2013-01-24 11:58:00,
2013-01-24 06:03:00,-2.4,-6.0,30.71,NW,318,3.0,5.0,84,0.00,,,0.00,Wunderground v.1.15,2013-01-24 12:03:00,
2013-01-24 06:04:00,-2.4,-6.0,30.71,NW,323,3.0,5.0,84,0.00,,,0.00,Wunderground v.1.15,2013-01-24 12:04:00,
2013-01-24 06:06:00,-2.5,-6.1,30.71,NNW,332,3.0,4.0,84,0.00,,,0.00,Wunderground v.1.15,2013-01-24 12:06:00,
2013-01-24 06:09:00,-2.7,-6.3,30.70,NW,325,2.0,4.0,84,0.00,,,0.00,Wunderground v.1.15,2013-01-24 12:09:00,
2013-01-24 06:12:00,-2.2,-5.4,30.70,NNW,328,2.0,4.0,86,0.00,,,0.00,Wunderground v.1.15,2013-01-24 12:12:00,
2013-01-24 06:15:00,-1.7,-4.9,30.70,NW,325,2.0,4.0,86,0.00,,,0.00,Wunderground v.1.15,2013-01-24 12:15:00,
2013-01-24 06:17:00,-1.5,-4.7,30.70,NW,326,2.0,2.0,86,0.00,,,0.00,Wunderground v.1.15,2013-01-24 12:17:00,
2013-01-24 06:20:00,-1.3,-4.5,30.70,NNW,328,2.0,2.0,86,0.00,,,0.00,Wunderground v.1.15,2013-01-24 12:20:00,
2013-01-24 06:21:00,-1.3,-4.5,30.70,NNW,328,2.0,3.0,86,0.00,,,0.00,Wunderground v.1.15,2013-01-24 12:21:00,
2013-01-24 06:22:00,-1.2,-4.4,30.70,NNW,328,2.0,3.0,86,0.00,,,0.00,Wunderground v.1.15,2013-01-24 12:22:00,
2013-01-24 06:26:00,-1.1,-4.3,30.71,NNW,335,2.0,2.0,86,0.00,,,0.00,Wunderground v.1.15,2013-01-24 12:26:00,
2013-01-24 06:27:00,-1.1,-4.5,30.70,NNW,343,2.0,8.0,85,0.00,,,0.00,Wunderground v.1.15,2013-01-24 12:27:00,
2013-01-24 06:28:00,-1.3,-4.7,30.70,WNW,300,2.0,8.0,85,0.00,,,0.00,Wunderground v.1.15,2013-01-24 12:28:00,
2013-01-24 06:33:00,-2.1,-5.7,30.71,NW,311,2.0,8.0,84,0.00,,,0.00,Wunderground v.1.15,2013-01-24 12:33:00,
2013-01-24 06:34:00,-2.2,-5.8,30.71,NW,311,2.0,8.0,84,0.00,,,0.00,Wunderground v.1.15,2013-01-24 12:34:00,
2013-01-24 06:36:00,-2.3,-5.9,30.71,NW,308,2.0,2.0,84,0.00,,,0.00,Wunderground v.1.15,2013-01-24 12:36:00,
2013-01-24 06:39:00,-2.5,-6.1,30.72,NW,306,2.0,8.0,84,0.00,,,0.00,Wunderground v.1.15,2013-01-24 12:39:00,
2013-01-24 06:40:00,-2.6,-6.2,30.72,NNW,339,1.0,8.0,84,0.00,,,0.00,Wunderground v.1.15,2013-01-24 12:40:00,
2013-01-24 06:42:00,-2.8,-6.4,30.72,NW,309,1.0,8.0,84,0.00,,,0.00,Wunderground v.1.15,2013-01-24 12:42:00,
2013-01-24 06:43:00,-2.8,-6.4,30.72,NW,309,1.0,8.0,84,0.00,,,0.00,Wunderground v.1.15,2013-01-24 12:43:00,
2013-01-24 06:44:00,-2.7,-6.3,30.72,NW,309,1.0,8.0,84,0.00,,,0.00,Wunderground v.1.15,2013-01-24 12:44:00,
2013-01-24 06:46:00,-2.8,-6.4,30.72,NW,309,1.0,8.0,84,0.00,,,0.00,Wunderground v.1.15,2013-01-24 12:46:00,
2013-01-24 06:49:00,-3.0,-6.6,30.72,NNW,340,2.0,8.0,84,0.00,,,0.00,Wunderground v.1.15,2013-01-24 12:49:00,
2013-01-24 06:51:00,-3.0,-6.6,30.72,NNW,342,2.0,8.0,84,0.00,,,0.00,Wunderground v.1.15,2013-01-24 12:51:00,
2013-01-24 06:55:00,-2.7,-6.1,30.72,WNW,302,2.0,8.0,85,0.00,,,0.00,Wunderground v.1.15,2013-01-24 12:55:00,
2013-01-24 06:56:00,-2.8,-6.0,30.72,WNW,302,0.0,-999.0,85,-99.99,,,0.00,weatherlink.com 1.10,2013-01-24 12:56:00,
2013-01-24 06:59:00,-2.9,-6.5,30.72,NNW,347,2.0,3.0,84,0.00,,,0.00,Wunderground v.1.15,2013-01-24 12:59:00,
2013-01-24 07:04:00,-2.7,-6.1,30.72,NNW,347,1.0,3.0,85,0.00,,,0.00,Wunderground v.1.15,2013-01-24 13:04:00,
2013-01-24 07:06:00,-2.8,-6.4,30.72,NNW,346,1.0,1.0,84,0.00,,,0.00,Wunderground v.1.15,2013-01-24 13:06:00,
2013-01-24 07:08:00,-2.8,-6.2,30.73,NW,321,1.0,3.0,85,0.00,,,0.00,Wunderground v.1.15,2013-01-24 13:08:00,
2013-01-24 07:10:00,-3.2,-6.8,30.73,NW,321,1.0,3.0,84,0.00,,,0.00,Wunderground v.1.15,2013-01-24 13:10:00,
2013-01-24 07:11:00,-3.3,-7.0,30.73,NW,321,0.0,-999.0,83,-99.99,,,0.00,weatherlink.com 1.10,2013-01-24 13:11:00,
2013-01-24 07:16:00,-3.9,-7.8,30.73,NW,319,1.0,2.0,83,0.00,,,0.00,Wunderground v.1.15,2013-01-24 13:16:00,
2013-01-24 07:19:00,-4.0,-7.9,30.73,NW,319,1.0,3.0,83,0.00,,,0.00,Wunderground v.1.15,2013-01-24 13:19:00,
2013-01-24 07:21:00,-4.0,-5.1,30.73,North,355,1.0,3.0,95,0.00,,,0.00,Wunderground v.1.15,2013-01-24 13:21:00,
2013-01-24 07:24:00,-3.9,-7.5,30.73,North,355,1.0,3.0,84,0.00,,,0.00,Wunderground v.1.15,2013-01-24 13:24:00,
2013-01-24 07:25:00,-3.9,-8.0,30.73,North,355,0.0,-999.0,84,-99.99,,,0.00,weatherlink.com 1.10,2013-01-24 13:25:00,
2013-01-24 07:26:00,-3.9,-7.5,30.73,North,355,1.0,1.0,84,0.00,,,0.00,Wunderground v.1.15,2013-01-24 13:26:00,
2013-01-24 07:31:00,-3.7,-7.3,30.73,NW,321,1.0,8.0,84,0.00,,,0.00,Wunderground v.1.15,2013-01-24 13:31:00,
2013-01-24 07:32:00,-3.7,-7.3,30.73,NW,321,1.0,8.0,84,0.00,,,0.00,Wunderground v.1.15,2013-01-24 13:32:00,
2013-01-24 07:33:00,-3.6,-7.2,30.73,NW,321,1.0,8.0,84,0.00,,,0.00,Wunderground v.1.15,2013-01-24 13:33:00,
2013-01-24 07:38:00,-3.2,-6.6,30.74,WNW,299,1.0,8.0,85,0.00,,,0.00,Wunderground v.1.15,2013-01-24 13:38:00,
2013-01-24 07:39:00,-3.1,-6.5,30.74,WNW,299,1.0,8.0,85,0.00,,,0.00,Wunderground v.1.15,2013-01-24 13:39:00,
2013-01-24 07:40:00,-3.1,-7.0,30.74,WNW,299,0.0,-999.0,85,-99.99,,,0.00,weatherlink.com 1.10,2013-01-24 13:40:00,
2013-01-24 07:43:00,-2.8,-6.2,30.74,NW,318,1.0,8.0,85,0.00,,,0.00,Wunderground v.1.15,2013-01-24 13:43:00,
2013-01-24 07:44:00,-2.8,-6.2,30.74,NW,319,2.0,8.0,85,0.00,,,0.00,Wunderground v.1.15,2013-01-24 13:44:00,
2013-01-24 07:48:00,-2.6,-6.0,30.74,NW,319,1.0,8.0,85,0.00,,,0.00,Wunderground v.1.15,2013-01-24 13:48:00,
2013-01-24 07:51:00,-2.5,-5.9,30.74,NNW,338,1.0,8.0,85,0.00,,,0.00,Wunderground v.1.15,2013-01-24 13:51:00,
2013-01-24 07:52:00,-2.4,-5.8,30.74,NNW,338,1.0,8.0,85,0.00,,,0.00,Wunderground v.1.15,2013-01-24 13:52:00,
2013-01-24 07:54:00,-2.3,-5.7,30.74,NNW,338,1.0,8.0,85,0.00,,,0.00,Wunderground v.1.15,2013-01-24 13:54:00,
2013-01-24 07:55:00,-2.3,-5.7,30.74,NNW,338,1.0,8.0,85,0.00,,,0.00,Wunderground v.1.15,2013-01-24 13:55:00,
2013-01-24 07:58:00,-2.5,-5.9,30.74,NNW,347,2.0,4.0,85,0.00,,,0.00,Wunderground v.1.15,2013-01-24 13:58:00,
2013-01-24 08:00:00,-2.6,-6.0,30.74,NW,313,2.0,4.0,85,0.00,,,0.00,Wunderground v.1.15,2013-01-24 14:00:00,
2013-01-24 08:01:00,-2.6,-6.2,30.74,NW,315,2.0,4.0,84,0.00,,,0.00,Wunderground v.1.15,2013-01-24 14:01:00,
2013-01-24 08:06:00,-2.4,-6.0,30.74,NNW,338,2.0,2.0,84,0.00,,,0.00,Wunderground v.1.15,2013-01-24 14:06:00,
2013-01-24 08:07:00,-2.4,-5.8,30.74,NNW,338,2.0,2.0,85,0.00,,,0.00,Wunderground v.1.15,2013-01-24 14:07:00,
2013-01-24 08:08:00,-2.3,-5.7,30.74,NNW,338,2.0,2.0,85,0.00,,,0.00,Wunderground v.1.15,2013-01-24 14:08:00,
2013-01-24 08:10:00,-2.2,-6.0,30.74,NNW,340,2.0,-999.0,85,-99.99,,,0.00,weatherlink.com 1.10,2013-01-24 14:10:00,
2013-01-24 08:14:00,-2.0,-5.4,30.75,NNW,339,1.0,2.0,85,0.00,,,0.00,Wunderground v.1.15,2013-01-24 14:14:00,
2013-01-24 08:15:00,-2.0,-5.4,30.75,NNW,340,1.0,2.0,85,0.00,,,0.00,Wunderground v.1.15,2013-01-24 14:15:00,
2013-01-24 08:16:00,-1.9,-5.3,30.75,NNW,338,1.0,1.0,85,0.00,,,0.00,Wunderground v.1.15,2013-01-24 14:16:00,
2013-01-24 08:19:00,-1.7,-5.1,30.75,NNW,338,1.0,4.0,85,0.00,,,0.00,Wunderground v.1.15,2013-01-24 14:19:00,
2013-01-24 08:20:00,-1.6,-5.0,30.75,NNW,328,1.0,4.0,85,0.00,,,0.00,Wunderground v.1.15,2013-01-24 14:20:00,
2013-01-24 08:23:00,-1.6,-5.0,30.75,NNW,338,2.0,4.0,85,0.00,,,0.00,Wunderground v.1.15,2013-01-24 14:23:00,
2013-01-24 08:24:00,-1.6,-5.0,30.75,NNW,338,2.0,4.0,85,0.00,,,0.00,Wunderground v.1.15,2013-01-24 14:24:00,
2013-01-24 08:26:00,-1.6,-5.0,30.75,NNW,338,2.0,2.0,85,0.00,,,0.00,Wunderground v.1.15,2013-01-24 14:26:00,
2013-01-24 08:27:00,-1.7,-5.1,30.75,NNW,338,2.0,7.0,85,0.00,,,0.00,Wunderground v.1.15,2013-01-24 14:27:00,
2013-01-24 08:29:00,-1.7,-5.1,30.75,NNW,338,1.0,7.0,85,0.00,,,0.00,Wunderground v.1.15,2013-01-24 14:29:00,
2013-01-24 08:32:00,-1.6,-5.0,30.75,NNW,338,1.0,7.0,85,0.00,,,0.00,Wunderground v.1.15,2013-01-24 14:32:00,
2013-01-24 08:33:00,-1.6,-5.0,30.75,NNW,339,1.0,7.0,85,0.00,,,0.00,Wunderground v.1.15,2013-01-24 14:33:00,
2013-01-24 08:34:00,-1.4,-4.8,30.75,NNW,339,1.0,7.0,85,0.00,,,0.00,Wunderground v.1.15,2013-01-24 14:34:00,
2013-01-24 08:40:00,-1.0,-4.0,30.75,NNW,338,0.0,-999.0,85,-99.99,,,0.00,weatherlink.com 1.10,2013-01-24 14:40:00,
2013-01-24 08:41:00,-1.0,-4.4,30.75,NNW,339,1.0,7.0,85,0.00,,,0.00,Wunderground v.1.15,2013-01-24 14:41:00,
2013-01-24 08:44:00,-0.8,-4.2,30.75,NNW,338,2.0,7.0,85,0.00,,,0.00,Wunderground v.1.15,2013-01-24 14:44:00,
2013-01-24 08:46:00,-0.8,-4.2,30.75,NNW,339,2.0,7.0,85,0.00,,,0.00,Wunderground v.1.15,2013-01-24 14:46:00,
2013-01-24 08:48:00,-0.8,-4.2,30.75,NNW,339,2.0,7.0,85,0.00,,,0.00,Wunderground v.1.15,2013-01-24 14:48:00,
2013-01-24 08:52:00,-0.8,-4.5,30.76,NNW,338,2.0,7.0,84,0.00,,,0.00,Wunderground v.1.15,2013-01-24 14:52:00,
2013-01-24 08:53:00,-0.8,-4.5,30.76,NNW,338,2.0,7.0,84,0.00,,,0.00,Wunderground v.1.15,2013-01-24 14:53:00,
2013-01-24 08:54:00,-0.8,-4.5,30.75,NNW,335,2.0,7.0,84,0.00,,,0.00,Wunderground v.1.15,2013-01-24 14:54:00,
2013-01-24 08:58:00,-0.8,-4.5,30.75,NNW,335,2.0,4.0,84,0.00,,,0.00,Wunderground v.1.15,2013-01-24 14:58:00,
2013-01-24 08:59:00,-0.8,-4.5,30.75,NNW,334,2.0,4.0,84,0.00,,,0.00,Wunderground v.1.15,2013-01-24 14:59:00,
2013-01-24 09:00:00,-0.8,-4.5,30.75,NNW,342,2.0,4.0,84,0.00,,,0.00,Wunderground v.1.15,2013-01-24 15:00:00,
2013-01-24 09:01:00,-0.7,-4.4,30.75,NNW,343,2.0,4.0,84,0.00,,,0.00,Wunderground v.1.15,2013-01-24 15:01:00,
2013-01-24 09:04:00,-0.1,-3.3,30.75,NNW,338,1.0,4.0,86,0.00,,,0.00,Wunderground v.1.15,2013-01-24 15:04:00,
2013-01-24 09:05:00,0.1,-3.1,30.75,NW,322,2.0,4.0,86,0.00,,,0.00,Wunderground v.1.15,2013-01-24 15:05:00,
2013-01-24 09:08:00,0.1,-3.3,30.75,NW,319,2.0,5.0,85,0.00,,,0.00,Wunderground v.1.15,2013-01-24 15:08:00,
2013-01-24 09:10:00,-0.1,-3.5,30.75,NW,310,2.0,5.0,85,0.00,,,0.00,Wunderground v.1.15,2013-01-24 15:10:00,
2013-01-24 09:11:00,0.0,-4.0,30.75,NW,325,3.0,-999.0,84,-99.99,,,0.00,weatherlink.com 1.10,2013-01-24 15:11:00,
2013-01-24 09:14:00,0.1,-3.3,30.75,NNW,344,2.0,5.0,85,0.00,,,0.00,Wunderground v.1.15,2013-01-24 15:14:00,
2013-01-24 09:15:00,0.1,-3.3,30.75,NNW,344,2.0,5.0,85,0.00,,,0.00,Wunderground v.1.15,2013-01-24 15:15:00,
2013-01-24 09:16:00,0.1,-3.3,30.75,NNW,343,2.0,2.0,85,0.00,,,0.00,Wunderground v.1.15,2013-01-24 15:16:00,
2013-01-24 09:17:00,0.1,-3.6,30.75,NNW,343,2.0,2.0,84,0.00,,,0.00,Wunderground v.1.15,2013-01-24 15:17:00,
2013-01-24 09:20:00,0.2,-3.5,30.75,NNW,341,2.0,4.0,84,0.00,,,0.00,Wunderground v.1.15,2013-01-24 15:20:00,
2013-01-24 09:23:00,0.5,-2.9,30.75,NNW,341,2.0,4.0,85,0.00,,,0.00,Wunderground v.1.15,2013-01-24 15:23:00,
2013-01-24 09:24:00,0.6,-2.8,30.75,NNW,337,2.0,4.0,85,0.00,,,0.00,Wunderground v.1.15,2013-01-24 15:24:00,
2013-01-24 09:26:00,0.9,-2.6,30.75,NNW,336,1.0,1.0,85,0.00,,,0.00,Wunderground v.1.15,2013-01-24 15:26:00,
2013-01-24 09:28:00,1.4,-1.8,30.75,NNW,336,1.0,6.0,86,0.00,,,0.00,Wunderground v.1.15,2013-01-24 15:28:00,
2013-01-24 09:31:00,1.9,-1.1,30.75,North,5,1.0,6.0,87,0.00,,,0.00,Wunderground v.1.15,2013-01-24 15:31:00,
2013-01-24 09:34:00,2.0,-1.2,30.75,North,360,1.0,6.0,86,0.00,,,0.00,Wunderground v.1.15,2013-01-24 15:34:00,
2013-01-24 09:36:00,2.3,-0.9,30.75,North,360,1.0,1.0,86,0.00,,,0.00,Wunderground v.1.15,2013-01-24 15:36:00,
2013-01-24 09:37:00,2.3,-0.9,30.75,North,351,1.0,6.0,86,0.00,,,0.00,Wunderground v.1.15,2013-01-24 15:37:00,
2013-01-24 09:40:00,2.4,-1.1,30.75,North,351,0.0,6.0,85,0.00,,,0.00,Wunderground v.1.15,2013-01-24 15:40:00,
2013-01-24 09:41:00,2.6,-1.0,30.75,North,351,1.0,-999.0,85,-99.99,,,0.00,weatherlink.com 1.10,2013-01-24 15:41:00,
2013-01-24 09:45:00,3.6,0.6,30.75,NE,46,1.0,6.0,87,0.00,,,0.00,Wunderground v.1.15,2013-01-24 15:45:00,
2013-01-24 09:46:00,3.7,0.7,30.75,NE,46,1.0,6.0,87,0.00,,,0.00,Wunderground v.1.15,2013-01-24 15:46:00,
2013-01-24 09:47:00,3.8,0.8,30.75,NE,46,1.0,6.0,87,0.00,,,0.00,Wunderground v.1.15,2013-01-24 15:47:00,
2013-01-24 09:49:00,3.9,0.4,30.75,NE,39,1.0,6.0,85,0.00,,,0.00,Wunderground v.1.15,2013-01-24 15:49:00,
2013-01-24 09:53:00,4.1,0.6,30.75,NE,39,2.0,6.0,85,0.00,,,0.00,Wunderground v.1.15,2013-01-24 15:53:00,
2013-01-24 09:54:00,4.1,0.6,30.74,NNW,334,2.0,6.0,85,0.00,,,0.00,Wunderground v.1.15,2013-01-24 15:54:00,
2013-01-24 09:55:00,4.1,0.6,30.74,NNE,27,2.0,6.0,85,0.00,,,0.00,Wunderground v.1.15,2013-01-24 15:55:00,
2013-01-24 09:56:00,4.2,1.0,30.74,NNW,336,2.0,-999.0,85,-99.99,,,0.00,weatherlink.com 1.10,2013-01-24 15:56:00,
2013-01-24 09:59:00,4.3,0.5,30.74,NE,45,2.0,4.0,84,0.00,,,0.00,Wunderground v.1.15,2013-01-24 15:59:00,
2013-01-24 10:02:00,4.5,1.0,30.74,NE,44,2.0,4.0,85,0.00,,,0.00,Wunderground v.1.15,2013-01-24 16:02:00,
2013-01-24 10:04:00,4.3,0.3,30.74,NNE,21,3.0,4.0,83,0.00,,,0.00,Wunderground v.1.15,2013-01-24 16:04:00,
2013-01-24 10:07:00,4.0,0.0,30.75,NNW,348,3.0,3.0,83,0.00,,,0.00,Wunderground v.1.15,2013-01-24 16:07:00,
2013-01-24 10:08:00,3.9,-0.4,30.75,NNW,345,2.0,3.0,82,0.00,,,0.00,Wunderground v.1.15,2013-01-24 16:08:00,
2013-01-24 10:10:00,3.8,-0.5,30.74,NNE,22,2.0,3.0,82,0.00,,,0.00,Wunderground v.1.15,2013-01-24 16:10:00,
2013-01-24 10:11:00,3.8,-1.0,30.74,NE,38,2.0,-999.0,82,-99.99,,,0.00,weatherlink.com 1.10,2013-01-24 16:11:00,
2013-01-24 10:14:00,3.8,-0.2,30.74,NE,37,2.0,4.0,83,0.00,,,0.00,Wunderground v.1.15,2013-01-24 16:14:00,
2013-01-24 10:15:00,3.8,-0.2,30.74,NE,36,2.0,4.0,83,0.00,,,0.00,Wunderground v.1.15,2013-01-24 16:15:00,
2013-01-24 10:16:00,3.9,-0.1,30.74,NE,38,2.0,3.0,83,0.00,,,0.00,Wunderground v.1.15,2013-01-24 16:16:00,
2013-01-24 10:17:00,4.0,0.0,30.74,NE,44,2.0,3.0,83,0.00,,,0.00,Wunderground v.1.15,2013-01-24 16:17:00,
2013-01-24 10:21:00,4.1,0.3,30.74,NE,44,2.0,3.0,84,0.00,,,0.00,Wunderground v.1.15,2013-01-24 16:21:00,
2013-01-24 10:23:00,4.1,0.1,30.74,ENE,68,2.0,5.0,83,0.00,,,0.00,Wunderground v.1.15,2013-01-24 16:23:00,
2013-01-24 10:26:00,3.8,-1.0,30.74,NE,49,4.0,-999.0,81,-99.99,,,0.00,weatherlink.com 1.10,2013-01-24 16:26:00,
2013-01-24 10:28:00,3.7,-0.8,30.74,NE,55,2.0,5.0,81,0.00,,,0.00,Wunderground v.1.15,2013-01-24 16:28:00,
2013-01-24 10:30:00,3.5,-1.0,30.74,ENE,75,3.0,5.0,81,0.00,,,0.00,Wunderground v.1.15,2013-01-24 16:30:00,
2013-01-24 10:32:00,3.3,-1.7,30.74,SE,133,3.0,5.0,79,0.00,,,0.00,Wunderground v.1.15,2013-01-24 16:32:00,
2013-01-24 10:34:00,3.2,-2.1,30.74,NNE,29,2.0,5.0,78,0.00,,,0.00,Wunderground v.1.15,2013-01-24 16:34:00,
2013-01-24 10:35:00,3.2,-2.1,30.74,NE,45,2.0,5.0,78,0.00,,,0.00,Wunderground v.1.15,2013-01-24 16:35:00,
2013-01-24 10:36:00,3.2,-1.8,30.74,NE,53,2.0,5.0,79,0.00,,,0.00,Wunderground v.1.15,2013-01-24 16:36:00,
2013-01-24 10:39:00,3.3,-1.5,30.74,NE,51,2.0,5.0,80,0.00,,,0.00,Wunderground v.1.15,2013-01-24 16:39:00,
2013-01-24 10:41:00,3.5,-1.0,30.74,ENE,59,2.0,5.0,81,0.00,,,0.00,Wunderground v.1.15,2013-01-24 16:41:00,
2013-01-24 10:42:00,3.5,-1.0,30.74,East,84,1.0,-999.0,81,-99.99,,,0.00,weatherlink.com 1.10,2013-01-24 16:42:00,
2013-01-24 10:43:00,3.5,-1.3,30.74,East,84,2.0,5.0,80,0.00,,,0.00,Wunderground v.1.15,2013-01-24 16:43:00,
2013-01-24 10:45:00,3.6,-1.2,30.74,East,80,2.0,5.0,80,0.00,,,0.00,Wunderground v.1.15,2013-01-24 16:45:00,
2013-01-24 10:48:00,3.8,-1.0,30.74,NE,54,2.0,5.0,80,0.00,,,0.00,Wunderground v.1.15,2013-01-24 16:48:00,
2013-01-24 10:50:00,3.8,-1.0,30.73,ENE,61,3.0,5.0,80,0.00,,,0.00,Wunderground v.1.15,2013-01-24 16:50:00,
2013-01-24 10:53:00,4.1,-0.4,30.73,ENE,61,2.0,5.0,81,0.00,,,0.00,Wunderground v.1.15,2013-01-24 16:53:00,
2013-01-24 10:55:00,4.4,-0.1,30.73,ENE,63,2.0,5.0,81,0.00,,,0.00,Wunderground v.1.15,2013-01-24 16:55:00,
2013-01-24 10:57:00,4.4,-0.9,30.73,ENE,64,1.0,2.0,78,0.00,,,0.00,Wunderground v.1.15,2013-01-24 16:57:00,
2013-01-24 10:59:00,4.4,-1.0,30.73,ENE,65,2.0,-999.0,78,-99.99,,,0.00,weatherlink.com 1.10,2013-01-24 16:59:00,
2013-01-24 11:01:00,4.3,-1.6,30.73,ENE,65,0.0,3.0,76,0.00,,,0.00,Wunderground v.1.15,2013-01-24 17:01:00,
2013-01-24 11:02:00,4.3,-1.6,30.73,ENE,65,1.0,3.0,76,0.00,,,0.00,Wunderground v.1.15,2013-01-24 17:02:00,
2013-01-24 11:03:00,4.3,-1.6,30.73,ENE,65,1.0,3.0,76,0.00,,,0.00,Wunderground v.1.15,2013-01-24 17:03:00,
2013-01-24 11:06:00,4.2,-2.0,30.73,ENE,69,1.0,1.0,75,0.00,,,0.00,Wunderground v.1.15,2013-01-24 17:06:00,
2013-01-24 11:08:00,4.2,-2.0,30.73,ENE,74,1.0,1.0,75,0.00,,,0.00,Wunderground v.1.15,2013-01-24 17:08:00,
2013-01-24 11:10:00,4.5,-0.8,30.73,ENE,63,1.0,5.0,78,0.00,,,0.00,Wunderground v.1.15,2013-01-24 17:10:00,
2013-01-24 11:11:00,4.6,-0.8,30.73,ENE,61,2.0,5.0,78,0.00,,,0.00,Wunderground v.1.15,2013-01-24 17:11:00,
2013-01-24 11:16:00,5.1,-0.8,30.73,NE,40,2.0,2.0,76,0.00,,,0.00,Wunderground v.1.15,2013-01-24 17:16:00,
2013-01-24 11:18:00,5.2,-0.4,30.73,ENE,67,2.0,2.0,77,0.00,,,0.00,Wunderground v.1.15,2013-01-24 17:18:00,
2013-01-24 11:20:00,5.4,-0.5,30.73,ENE,67,2.0,2.0,76,0.00,,,0.00,Wunderground v.1.15,2013-01-24 17:20:00,
2013-01-24 11:22:00,5.6,-0.3,30.73,ENE,68,2.0,3.0,76,0.00,,,0.00,Wunderground v.1.15,2013-01-24 17:22:00,
2013-01-24 11:25:00,5.6,-1.5,30.72,SE,133,2.0,5.0,72,0.00,,,0.00,Wunderground v.1.15,2013-01-24 17:25:00,
2013-01-24 11:26:00,5.5,-1.9,30.72,SE,133,2.0,4.0,71,0.00,,,0.00,Wunderground v.1.15,2013-01-24 17:26:00,
2013-01-24 11:27:00,5.5,-2.0,30.72,SE,133,2.0,-999.0,70,-99.99,,,0.00,weatherlink.com 1.10,2013-01-24 17:27:00,
2013-01-24 11:29:00,5.3,-2.4,30.72,ESE,113,2.0,8.0,70,0.00,,,0.00,Wunderground v.1.15,2013-01-24 17:29:00,
2013-01-24 11:32:00,5.1,-2.3,30.72,NE,39,2.0,8.0,71,0.00,,,0.00,Wunderground v.1.15,2013-01-24 17:32:00,
2013-01-24 11:33:00,5.1,-2.0,30.72,NE,44,2.0,8.0,72,0.00,,,0.00,Wunderground v.1.15,2013-01-24 17:33:00,
2013-01-24 11:35:00,5.1,-1.7,30.72,NE,51,2.0,8.0,73,0.00,,,0.00,Wunderground v.1.15,2013-01-24 17:35:00,
2013-01-24 11:38:00,5.1,-2.9,30.72,ENE,71,3.0,8.0,69,0.00,,,0.00,Wunderground v.1.15,2013-01-24 17:38:00,
2013-01-24 11:39:00,5.1,-2.9,30.72,ENE,71,2.0,8.0,69,0.00,,,0.00,Wunderground v.1.15,2013-01-24 17:39:00,
2013-01-24 11:40:00,5.1,-2.9,30.72,ENE,71,2.0,8.0,69,0.00,,,0.00,Wunderground v.1.15,2013-01-24 17:40:00,
2013-01-24 11:42:00,5.3,-2.0,30.72,ENE,76,3.0,-999.0,71,-99.99,,,0.00,weatherlink.com 1.10,2013-01-24 17:42:00,
2013-01-24 11:45:00,5.8,-1.0,30.72,ENE,77,1.0,8.0,73,0.00,,,0.00,Wunderground v.1.15,2013-01-24 17:45:00,
2013-01-24 11:47:00,6.0,-1.1,30.72,ENE,77,1.0,8.0,72,0.00,,,0.00,Wunderground v.1.15,2013-01-24 17:47:00,
2013-01-24 11:52:00,6.5,-1.5,30.72,East,94,1.0,8.0,69,0.00,,,0.00,Wunderground v.1.15,2013-01-24 17:52:00,
2013-01-24 11:54:00,6.5,-1.8,30.72,East,94,1.0,8.0,68,0.00,,,0.00,Wunderground v.1.15,2013-01-24 17:54:00,
2013-01-24 11:57:00,6.4,-2.5,30.71,ESE,102,2.0,5.0,66,0.00,,,0.00,Wunderground v.1.15,2013-01-24 17:57:00,
2013-01-24 11:58:00,6.3,-3.0,30.71,ESE,102,0.0,-999.0,66,-99.99,,,0.00,weatherlink.com 1.10,2013-01-24 17:58:00,
2013-01-24 12:01:00,6.5,-0.9,30.71,ESE,102,1.0,5.0,71,0.00,,,0.00,Wunderground v.1.15,2013-01-24 18:01:00,
2013-01-24 12:04:00,6.8,-0.6,30.71,ESE,102,1.0,5.0,71,0.00,,,0.00,Wunderground v.1.15,2013-01-24 18:04:00,
2013-01-24 12:07:00,7.1,-0.3,30.70,ESE,102,1.0,1.0,71,0.00,,,0.00,Wunderground v.1.15,2013-01-24 18:07:00,
2013-01-24 12:08:00,7.2,-0.2,30.70,ESE,102,1.0,1.0,71,0.00,,,0.00,Wunderground v.1.15,2013-01-24 18:08:00,
2013-01-24 12:10:00,7.5,0.4,30.70,ESE,102,1.0,1.0,72,0.00,,,0.00,Wunderground v.1.15,2013-01-24 18:10:00,
2013-01-24 12:12:00,7.7,-1.0,30.70,ESE,102,1.0,-999.0,69,-99.99,,,0.00,weatherlink.com 1.10,2013-01-24 18:12:00,
2013-01-24 12:17:00,7.3,-1.7,30.70,ESE,106,2.0,2.0,66,0.00,,,0.00,Wunderground v.1.15,2013-01-24 18:17:00,
2013-01-24 12:18:00,7.2,-2.1,30.70,ESE,107,2.0,4.0,65,0.00,,,0.00,Wunderground v.1.15,2013-01-24 18:18:00,
2013-01-24 12:20:00,7.2,-2.1,30.70,ESE,107,2.0,4.0,65,0.00,,,0.00,Wunderground v.1.15,2013-01-24 18:20:00,
2013-01-24 12:25:00,7.6,-1.1,30.69,ESE,108,2.0,4.0,67,0.00,,,0.00,Wunderground v.1.15,2013-01-24 18:25:00,
2013-01-24 12:27:00,7.5,-1.2,30.69,ESE,107,2.0,6.0,67,0.00,,,0.00,Wunderground v.1.15,2013-01-24 18:27:00,
2013-01-24 12:28:00,7.5,-1.2,30.69,ESE,107,1.0,6.0,67,0.00,,,0.00,Wunderground v.1.15,2013-01-24 18:28:00,
2013-01-24 12:29:00,7.6,-0.8,30.69,ESE,107,1.0,6.0,68,0.00,,,0.00,Wunderground v.1.15,2013-01-24 18:29:00,
2013-01-24 12:31:00,7.6,-1.1,30.69,ESE,105,1.0,6.0,67,0.00,,,0.00,Wunderground v.1.15,2013-01-24 18:31:00,
2013-01-24 12:32:00,7.6,-0.8,30.69,ESE,103,1.0,6.0,68,0.00,,,0.00,Wunderground v.1.15,2013-01-24 18:32:00,
2013-01-24 12:33:00,7.7,-0.4,30.69,ESE,103,2.0,6.0,69,0.00,,,0.00,Wunderground v.1.15,2013-01-24 18:33:00,
2013-01-24 12:38:00,8.2,-0.2,30.69,ESE,104,2.0,6.0,68,0.00,,,0.00,Wunderground v.1.15,2013-01-24 18:38:00,
2013-01-24 12:39:00,8.2,-0.2,30.69,ESE,104,2.0,6.0,68,0.00,,,0.00,Wunderground v.1.15,2013-01-24 18:39:00,
2013-01-24 12:43:00,8.4,-1.0,30.69,ESE,105,6.0,-999.0,65,-99.99,,,0.00,weatherlink.com 1.10,2013-01-24 18:43:00,
2013-01-24 12:44:00,8.3,-0.7,30.69,ESE,105,2.0,6.0,66,0.00,,,0.00,Wunderground v.1.15,2013-01-24 18:44:00,
2013-01-24 12:46:00,8.1,-1.6,30.69,ESE,105,2.0,6.0,64,0.00,,,0.00,Wunderground v.1.15,2013-01-24 18:46:00,
2013-01-24 12:49:00,7.8,-2.2,30.69,ESE,105,2.0,6.0,63,0.00,,,0.00,Wunderground v.1.15,2013-01-24 18:49:00,
2013-01-24 12:51:00,7.8,-1.5,30.69,ESE,105,2.0,6.0,65,0.00,,,0.00,Wunderground v.1.15,2013-01-24 18:51:00,
2013-01-24 12:54:00,7.8,-2.2,30.69,ESE,105,2.0,6.0,63,0.00,,,0.00,Wunderground v.1.15,2013-01-24 18:54:00,
2013-01-24 12:57:00,7.9,0.7,30.69,ESE,105,1.0,1.0,72,0.00,,,0.00,Wunderground v.1.15,2013-01-24 18:57:00,
2013-01-24 12:58:00,8.1,-0.9,30.69,ESE,105,1.0,1.0,66,0.00,,,0.00,Wunderground v.1.15,2013-01-24 18:58:00,
2013-01-24 13:01:00,8.2,-1.5,30.69,ESE,105,2.0,2.0,64,0.00,,,0.00,Wunderground v.1.15,2013-01-24 19:01:00,
2013-01-24 13:04:00,8.3,-1.4,30.69,ESE,105,2.0,2.0,64,0.00,,,0.00,Wunderground v.1.15,2013-01-24 19:04:00,
2013-01-24 13:07:00,8.4,-1.3,30.68,ESE,105,2.0,2.0,64,0.00,,,0.00,Wunderground v.1.15,2013-01-24 19:07:00,
2013-01-24 13:10:00,8.7,0.0,30.68,ESE,105,1.0,2.0,67,0.00,,,0.00,Wunderground v.1.15,2013-01-24 19:10:00,
2013-01-24 13:12:00,8.7,-1.0,30.68,SW,221,2.0,-999.0,64,-99.99,,,0.00,weatherlink.com 1.10,2013-01-24 19:12:00,
2013-01-24 13:14:00,8.7,-0.3,30.68,SW,221,2.0,4.0,66,0.00,,,0.00,Wunderground v.1.15,2013-01-24 19:14:00,
2013-01-24 13:15:00,8.7,-0.3,30.68,SW,221,1.0,4.0,66,0.00,,,0.00,Wunderground v.1.15,2013-01-24 19:15:00,
2013-01-24 13:18:00,8.6,-1.1,30.67,SW,226,2.0,4.0,64,0.00,,,0.00,Wunderground v.1.15,2013-01-24 19:18:00,
2013-01-24 13:21:00,8.3,-1.7,30.67,SW,232,3.0,5.0,63,0.00,,,0.00,Wunderground v.1.15,2013-01-24 19:21:00,
2013-01-24 13:24:00,8.2,-1.5,30.67,SW,232,3.0,5.0,64,0.00,,,0.00,Wunderground v.1.15,2013-01-24 19:24:00,
2013-01-24 13:25:00,8.2,-1.5,30.68,SW,232,3.0,5.0,64,0.00,,,0.00,Wunderground v.1.15,2013-01-24 19:25:00,
2013-01-24 13:26:00,8.3,-1.4,30.67,SW,232,3.0,4.0,64,0.00,,,0.00,Wunderground v.1.15,2013-01-24 19:26:00,
2013-01-24 13:30:00,8.3,-1.4,30.67,WSW,237,2.0,6.0,64,0.00,,,0.00,Wunderground v.1.15,2013-01-24 19:30:00,
2013-01-24 13:32:00,8.2,-1.8,30.67,WSW,237,2.0,6.0,63,0.00,,,0.00,Wunderground v.1.15,2013-01-24 19:32:00,
2013-01-24 13:34:00,8.0,-2.0,30.67,WSW,237,3.0,6.0,63,0.00,,,0.00,Wunderground v.1.15,2013-01-24 19:34:00,
2013-01-24 13:35:00,8.0,-2.0,30.67,WSW,237,3.0,6.0,63,0.00,,,0.00,Wunderground v.1.15,2013-01-24 19:35:00,
2013-01-24 13:37:00,8.0,-2.0,30.67,WSW,237,3.0,6.0,63,0.00,,,0.00,Wunderground v.1.15,2013-01-24 19:37:00,
2013-01-24 13:41:00,8.0,-2.0,30.67,WSW,237,3.0,6.0,63,0.00,,,0.00,Wunderground v.1.15,2013-01-24 19:41:00,
2013-01-24 13:43:00,8.2,-1.0,30.67,WSW,237,3.0,-999.0,65,-99.99,,,0.00,weatherlink.com 1.10,2013-01-24 19:43:00,
2013-01-24 13:45:00,8.4,-1.3,30.67,WSW,237,3.0,6.0,64,0.00,,,0.00,Wunderground v.1.15,2013-01-24 19:45:00,
2013-01-24 13:49:00,8.6,-1.4,30.66,SW,232,2.0,6.0,63,0.00,,,0.00,Wunderground v.1.15,2013-01-24 19:49:00,
2013-01-24 13:50:00,8.6,-1.4,30.66,SW,232,2.0,6.0,63,0.00,,,0.00,Wunderground v.1.15,2013-01-24 19:50:00,
2013-01-24 13:52:00,8.7,-1.7,30.66,SW,232,2.0,6.0,62,0.00,,,0.00,Wunderground v.1.15,2013-01-24 19:52:00,
2013-01-24 13:53:00,8.7,-1.7,30.66,SW,232,2.0,6.0,62,0.00,,,0.00,Wunderground v.1.15,2013-01-24 19:53:00,
2013-01-24 13:54:00,8.7,-1.7,30.66,SW,232,2.0,6.0,62,0.00,,,0.00,Wunderground v.1.15,2013-01-24 19:54:00,
2013-01-24 13:58:00,8.8,-2.0,30.66,SW,232,3.0,-999.0,62,-99.99,,,0.00,weatherlink.com 1.10,2013-01-24 19:58:00,
2013-01-24 13:59:00,8.9,-1.5,30.66,SW,232,1.0,3.0,62,0.00,,,0.00,Wunderground v.1.15,2013-01-24 19:59:00,
2013-01-24 14:05:00,9.2,0.5,30.65,SW,232,1.0,3.0,67,0.00,,,0.00,Wunderground v.1.15,2013-01-24 20:05:00,
2013-01-24 14:06:00,9.2,-0.2,30.65,SW,232,1.0,2.0,65,0.00,,,0.00,Wunderground v.1.15,2013-01-24 20:06:00,
2013-01-24 14:07:00,9.3,-0.1,30.65,SW,229,1.0,2.0,65,0.00,,,0.00,Wunderground v.1.15,2013-01-24 20:07:00,
2013-01-24 14:10:00,9.5,0.1,30.65,SW,229,1.0,3.0,65,0.00,,,0.00,Wunderground v.1.15,2013-01-24 20:10:00,
2013-01-24 14:13:00,9.5,-0.9,30.65,SW,229,1.0,3.0,62,0.00,,,0.00,Wunderground v.1.15,2013-01-24 20:13:00,
2013-01-24 14:14:00,9.6,-0.1,30.65,SW,229,1.0,3.0,64,0.00,,,0.00,Wunderground v.1.15,2013-01-24 20:14:00,
2013-01-24 14:15:00,9.6,-1.0,30.65,SW,229,1.0,-999.0,63,-99.99,,,0.00,weatherlink.com 1.10,2013-01-24 20:15:00,
2013-01-24 14:18:00,9.5,-0.9,30.65,SW,229,1.0,3.0,62,0.00,,,0.00,Wunderground v.1.15,2013-01-24 20:18:00,
2013-01-24 14:23:00,9.2,-1.5,30.65,SW,229,1.0,3.0,61,0.00,,,0.00,Wunderground v.1.15,2013-01-24 20:23:00,
2013-01-24 14:24:00,9.2,-1.2,30.65,SW,229,1.0,3.0,62,0.00,,,0.00,Wunderground v.1.15,2013-01-24 20:24:00,
2013-01-24 14:28:00,9.3,-1.0,30.65,SW,229,2.0,-999.0,63,-99.99,,,0.00,weatherlink.com 1.10,2013-01-24 20:28:00,
2013-01-24 14:29:00,9.4,-0.7,30.65,SW,229,1.0,6.0,63,0.00,,,0.00,Wunderground v.1.15,2013-01-24 20:29:00,
2013-01-24 14:30:00,9.4,-1.0,30.65,SW,229,1.0,6.0,62,0.00,,,0.00,Wunderground v.1.15,2013-01-24 20:30:00,
2013-01-24 14:31:00,9.4,-1.0,30.65,SW,229,1.0,6.0,62,0.00,,,0.00,Wunderground v.1.15,2013-01-24 20:31:00,
2013-01-24 14:33:00,9.5,-0.6,30.65,SW,229,1.0,6.0,63,0.00,,,0.00,Wunderground v.1.15,2013-01-24 20:33:00,
2013-01-24 14:38:00,9.8,0.7,30.65,SW,229,0.0,6.0,66,0.00,,,0.00,Wunderground v.1.15,2013-01-24 20:38:00,
2013-01-24 14:39:00,9.9,1.4,30.64,SW,229,0.0,6.0,68,0.00,,,0.00,Wunderground v.1.15,2013-01-24 20:39:00,
2013-01-24 14:41:00,10.0,1.2,30.65,SW,229,0.0,6.0,67,0.00,,,0.00,Wunderground v.1.15,2013-01-24 20:41:00,
2013-01-24 14:44:00,10.2,1.1,30.65,SW,229,0.0,6.0,66,0.00,,,0.00,Wunderground v.1.15,2013-01-24 20:44:00,
2013-01-24 14:46:00,10.3,0.9,30.65,SW,229,0.0,6.0,65,0.00,,,0.00,Wunderground v.1.15,2013-01-24 20:46:00,
2013-01-24 14:47:00,10.3,0.9,30.65,SW,229,0.0,6.0,65,0.00,,,0.00,Wunderground v.1.15,2013-01-24 20:47:00,
2013-01-24 14:49:00,10.1,-0.3,30.65,SW,229,1.0,6.0,62,0.00,,,0.00,Wunderground v.1.15,2013-01-24 20:49:00,
2013-01-24 14:53:00,9.8,-0.3,30.65,SW,229,1.0,6.0,63,0.00,,,0.00,Wunderground v.1.15,2013-01-24 20:53:00,
2013-01-24 14:57:00,10.0,1.9,30.65,SW,229,1.0,1.0,69,0.00,,,0.00,Wunderground v.1.15,2013-01-24 20:57:00,
2013-01-24 14:58:00,10.0,1.9,30.65,SW,229,1.0,1.0,69,0.00,,,0.00,Wunderground v.1.15,2013-01-24 20:58:00,
2013-01-24 14:59:00,10.1,2.0,30.65,SW,229,0.0,-999.0,70,-99.99,,,0.00,weatherlink.com 1.10,2013-01-24 20:59:00,
2013-01-24 15:03:00,11.0,4.9,30.64,SW,228,0.0,1.0,76,0.00,,,0.00,Wunderground v.1.15,2013-01-24 21:03:00,
2013-01-24 15:04:00,11.0,4.0,30.64,SW,228,0.0,1.0,73,0.00,,,0.00,Wunderground v.1.15,2013-01-24 21:04:00,
2013-01-24 15:05:00,11.1,4.4,30.64,SW,228,0.0,1.0,74,0.00,,,0.00,Wunderground v.1.15,2013-01-24 21:05:00,
2013-01-24 15:06:00,11.2,4.8,30.64,SW,228,0.0,0.0,75,0.00,,,0.00,Wunderground v.1.15,2013-01-24 21:06:00,
2013-01-24 15:11:00,11.4,2.6,30.64,SW,228,0.0,0.0,67,0.00,,,0.00,Wunderground v.1.15,2013-01-24 21:11:00,
2013-01-24 15:13:00,11.3,2.0,30.64,SW,228,0.0,-999.0,65,-99.99,,,0.00,weatherlink.com 1.10,2013-01-24 21:13:00,
2013-01-24 15:15:00,11.3,1.8,30.64,SW,228,0.0,0.0,65,0.00,,,0.00,Wunderground v.1.15,2013-01-24 21:15:00,
2013-01-24 15:17:00,11.3,2.1,30.64,SW,228,0.0,0.0,66,0.00,,,0.00,Wunderground v.1.15,2013-01-24 21:17:00,
2013-01-24 15:19:00,11.5,4.5,30.64,SW,228,0.0,0.0,73,0.00,,,0.00,Wunderground v.1.15,2013-01-24 21:19:00,
2013-01-24 15:25:00,11.4,2.6,30.63,SW,228,0.0,0.0,67,0.00,,,0.00,Wunderground v.1.15,2013-01-24 21:25:00,
2013-01-24 15:27:00,11.3,1.5,30.63,SW,228,0.0,4.0,64,0.00,,,0.00,Wunderground v.1.15,2013-01-24 21:27:00,
2013-01-24 15:29:00,11.3,1.0,30.63,SW,228,0.0,-999.0,64,-99.99,,,0.00,weatherlink.com 1.10,2013-01-24 21:29:00,
2013-01-24 15:30:00,11.2,1.0,30.63,SW,228,0.0,4.0,63,0.00,,,0.00,Wunderground v.1.15,2013-01-24 21:30:00,
2013-01-24 15:34:00,11.0,0.2,30.63,SW,228,0.0,4.0,61,0.00,,,0.00,Wunderground v.1.15,2013-01-24 21:34:00,
2013-01-24 15:35:00,10.9,0.8,30.63,SW,228,0.0,4.0,63,0.00,,,0.00,Wunderground v.1.15,2013-01-24 21:35:00,
2013-01-24 15:36:00,10.9,0.8,30.63,SW,228,0.0,4.0,63,0.00,,,0.00,Wunderground v.1.15,2013-01-24 21:36:00,
2013-01-24 15:41:00,10.8,0.3,30.63,SW,228,0.0,4.0,62,0.00,,,0.00,Wunderground v.1.15,2013-01-24 21:41:00,
2013-01-24 15:42:00,10.8,3.5,30.63,SW,228,0.0,4.0,72,0.00,,,0.00,Wunderground v.1.15,2013-01-24 21:42:00,
2013-01-24 15:43:00,10.8,2.3,30.63,SW,228,0.0,4.0,68,0.00,,,0.00,Wunderground v.1.15,2013-01-24 21:43:00,
2013-01-24 15:45:00,10.8,1.0,30.63,SW,228,0.0,-999.0,65,-99.99,,,0.00,weatherlink.com 1.10,2013-01-24 21:45:00,
2013-01-24 15:48:00,11.0,2.5,30.62,SW,228,0.0,4.0,68,0.00,,,0.00,Wunderground v.1.15,2013-01-24 21:48:00,
2013-01-24 15:49:00,11.1,2.6,30.62,SW,228,0.0,4.0,68,0.00,,,0.00,Wunderground v.1.15,2013-01-24 21:49:00,
2013-01-24 15:53:00,11.0,0.5,30.62,SW,228,0.0,4.0,62,0.00,,,0.00,Wunderground v.1.15,2013-01-24 21:53:00,
2013-01-24 15:56:00,10.9,-0.3,30.62,SW,228,0.0,0.0,60,0.00,,,0.00,Wunderground v.1.15,2013-01-24 21:56:00,
2013-01-24 15:59:00,10.7,-0.1,30.63,SW,228,0.0,0.0,61,0.00,,,0.00,Wunderground v.1.15,2013-01-24 21:59:00,
2013-01-24 16:00:00,10.7,0.2,30.63,SW,228,0.0,0.0,62,0.00,,,0.00,Wunderground v.1.15,2013-01-24 22:00:00,
2013-01-24 16:01:00,10.7,0.9,30.63,SW,228,0.0,0.0,64,0.00,,,0.00,Wunderground v.1.15,2013-01-24 22:01:00,
2013-01-24 16:04:00,10.7,1.2,30.63,SW,228,0.0,0.0,65,0.00,,,0.00,Wunderground v.1.15,2013-01-24 22:04:00,
2013-01-24 16:07:00,10.7,0.9,30.62,SW,228,0.0,1.0,64,0.00,,,0.00,Wunderground v.1.15,2013-01-24 22:07:00,
2013-01-24 16:08:00,10.7,0.9,30.62,SW,228,0.0,1.0,64,0.00,,,0.00,Wunderground v.1.15,2013-01-24 22:08:00,
2013-01-24 16:11:00,10.6,0.1,30.62,SW,227,0.0,1.0,62,0.00,,,0.00,Wunderground v.1.15,2013-01-24 22:11:00,
2013-01-24 16:13:00,10.5,-0.3,30.62,SW,227,1.0,1.0,61,0.00,,,0.00,Wunderground v.1.15,2013-01-24 22:13:00,
2013-01-24 16:17:00,10.4,0.3,30.62,SW,227,0.0,1.0,63,0.00,,,0.00,Wunderground v.1.15,2013-01-24 22:17:00,
2013-01-24 16:19:00,10.4,0.3,30.62,SW,227,0.0,1.0,63,0.00,,,0.00,Wunderground v.1.15,2013-01-24 22:19:00,
2013-01-24 16:23:00,10.4,-0.1,30.62,SW,226,0.0,2.0,62,0.00,,,0.00,Wunderground v.1.15,2013-01-24 22:23:00,
2013-01-24 16:26:00,10.3,-0.2,30.61,SW,226,0.0,0.0,62,0.00,,,0.00,Wunderground v.1.15,2013-01-24 22:26:00,
2013-01-24 16:28:00,10.3,0.5,30.61,SW,226,0.0,2.0,64,0.00,,,0.00,Wunderground v.1.15,2013-01-24 22:28:00,
2013-01-24 16:30:00,10.3,0.9,30.61,SW,227,0.0,2.0,65,0.00,,,0.00,Wunderground v.1.15,2013-01-24 22:30:00,
2013-01-24 16:33:00,10.2,-0.2,30.61,SSW,208,0.0,3.0,62,0.00,,,0.00,Wunderground v.1.15,2013-01-24 22:33:00,
2013-01-24 16:34:00,10.1,-0.3,30.61,SSW,208,1.0,3.0,62,0.00,,,0.00,Wunderground v.1.15,2013-01-24 22:34:00,
2013-01-24 16:35:00,10.1,-0.3,30.61,SSW,203,1.0,4.0,62,0.00,,,0.00,Wunderground v.1.15,2013-01-24 22:35:00,
2013-01-24 16:39:00,10.0,-0.1,30.61,SSW,203,1.0,2.0,63,0.00,,,0.00,Wunderground v.1.15,2013-01-24 22:39:00,
2013-01-24 16:42:00,10.0,0.6,30.61,SSW,203,1.0,2.0,65,0.00,,,0.00,Wunderground v.1.15,2013-01-24 22:42:00,
2013-01-24 16:45:00,10.0,0.0,30.61,SSW,203,0.0,-999.0,64,-99.99,,,0.00,weatherlink.com 1.10,2013-01-24 22:45:00,
2013-01-24 16:47:00,9.9,0.1,30.61,SSW,203,0.0,2.0,64,0.00,,,0.00,Wunderground v.1.15,2013-01-24 22:47:00,
2013-01-24 16:48:00,9.9,-0.2,30.61,SSW,203,0.0,2.0,63,0.00,,,0.00,Wunderground v.1.15,2013-01-24 22:48:00,
2013-01-24 16:50:00,9.9,-0.2,30.62,SSW,203,1.0,2.0,63,0.00,,,0.00,Wunderground v.1.15,2013-01-24 22:50:00,
2013-01-24 16:52:00,10.0,2.2,30.61,SSW,203,1.0,2.0,70,0.00,,,0.00,Wunderground v.1.15,2013-01-24 22:52:00,
2013-01-24 16:53:00,10.0,1.9,30.61,East,86,1.0,2.0,69,0.00,,,0.00,Wunderground v.1.15,2013-01-24 22:53:00,
2013-01-24 16:54:00,10.0,1.5,30.61,East,86,1.0,2.0,68,0.00,,,0.00,Wunderground v.1.15,2013-01-24 22:54:00,
2013-01-24 16:59:00,9.9,1.1,30.61,East,87,1.0,1.0,67,0.00,,,0.00,Wunderground v.1.15,2013-01-24 22:59:00,
2013-01-24 17:00:00,9.9,1.1,30.61,East,87,1.0,1.0,67,0.00,,,0.00,Wunderground v.1.15,2013-01-24 23:00:00,
2013-01-24 17:01:00,9.9,1.1,30.61,East,87,1.0,1.0,67,0.00,,,0.00,Wunderground v.1.15,2013-01-24 23:01:00,
2013-01-24 17:05:00,10.1,3.2,30.60,East,87,0.0,1.0,73,0.00,,,0.00,Wunderground v.1.15,2013-01-24 23:05:00,
2013-01-24 17:06:00,10.1,2.6,30.60,East,96,0.0,1.0,71,0.00,,,0.00,Wunderground v.1.15,2013-01-24 23:06:00,
2013-01-24 17:07:00,10.1,1.6,30.60,East,96,0.0,1.0,68,0.00,,,0.00,Wunderground v.1.15,2013-01-24 23:07:00,
2013-01-24 17:11:00,9.9,0.5,30.60,East,96,1.0,4.0,65,0.00,,,0.00,Wunderground v.1.15,2013-01-24 23:11:00,
2013-01-24 17:12:00,9.9,0.5,30.60,East,96,1.0,4.0,65,0.00,,,0.00,Wunderground v.1.15,2013-01-24 23:12:00,
2013-01-24 17:14:00,9.8,0.0,30.60,East,101,4.0,-999.0,65,-99.99,,,0.00,weatherlink.com 1.10,2013-01-24 23:14:00,
2013-01-24 17:18:00,9.7,0.3,30.59,ESE,106,2.0,2.0,65,0.00,,,0.00,Wunderground v.1.15,2013-01-24 23:18:00,
2013-01-24 17:23:00,9.6,0.2,30.59,ESE,111,2.0,4.0,65,0.00,,,0.00,Wunderground v.1.15,2013-01-24 23:23:00,
2013-01-24 17:24:00,9.6,0.2,30.59,ESE,111,2.0,4.0,65,0.00,,,0.00,Wunderground v.1.15,2013-01-24 23:24:00,
2013-01-24 17:25:00,9.5,-0.2,30.59,ESE,111,1.0,4.0,64,0.00,,,0.00,Wunderground v.1.15,2013-01-24 23:25:00,
2013-01-24 17:29:00,9.6,0.2,30.59,ESE,113,1.0,4.0,65,0.00,,,0.00,Wunderground v.1.15,2013-01-24 23:29:00,
2013-01-24 17:30:00,9.6,0.0,30.59,ESE,113,0.0,-999.0,65,-99.99,,,0.00,weatherlink.com 1.10,2013-01-24 23:30:00,
2013-01-24 17:32:00,9.6,0.5,30.59,ESE,115,1.0,4.0,66,0.00,,,0.00,Wunderground v.1.15,2013-01-24 23:32:00,
2013-01-24 17:35:00,9.6,0.2,30.59,ESE,117,1.0,4.0,65,0.00,,,0.00,Wunderground v.1.15,2013-01-24 23:35:00,
2013-01-24 17:37:00,9.6,0.2,30.59,ESE,114,2.0,4.0,65,0.00,,,0.00,Wunderground v.1.15,2013-01-24 23:37:00,
2013-01-24 17:40:00,9.6,0.2,30.58,ESE,115,1.0,4.0,65,0.00,,,0.00,Wunderground v.1.15,2013-01-24 23:40:00,
2013-01-24 17:42:00,9.6,0.2,30.58,South,174,2.0,4.0,65,0.00,,,0.00,Wunderground v.1.15,2013-01-24 23:42:00,
2013-01-24 17:44:00,9.6,0.0,30.58,SE,143,2.0,-999.0,65,-99.99,,,0.00,weatherlink.com 1.10,2013-01-24 23:44:00,
2013-01-24 17:46:00,9.6,0.2,30.58,SE,145,2.0,2.0,65,0.00,,,0.00,Wunderground v.1.15,2013-01-24 23:46:00,
2013-01-24 17:47:00,9.6,0.2,30.58,SSE,150,2.0,6.0,65,0.00,,,0.00,Wunderground v.1.15,2013-01-24 23:47:00,
2013-01-24 17:49:00,9.6,-0.1,30.58,SE,137,3.0,6.0,64,0.00,,,0.00,Wunderground v.1.15,2013-01-24 23:49:00,
2013-01-24 17:52:00,9.6,0.2,30.58,SE,137,3.0,6.0,65,0.00,,,0.00,Wunderground v.1.15,2013-01-24 23:52:00,
2013-01-24 17:55:00,9.6,0.2,30.57,SE,142,3.0,6.0,65,0.00,,,0.00,Wunderground v.1.15,2013-01-24 23:55:00,
2013-01-24 17:57:00,9.6,-0.1,30.57,SSE,153,3.0,5.0,64,0.00,,,0.00,Wunderground v.1.15,2013-01-24 23:57:00,
2013-01-24 17:58:00,9.5,-0.2,30.57,SSE,153,3.0,5.0,64,0.00,,,0.00,Wunderground v.1.15,2013-01-24 23:58:00,
2013-01-24 18:00:00,9.5,-0.2,30.57,SE,138,4.0,5.0,64,0.00,,,0.00,Wunderground v.1.15,2013-01-25 00:00:00,
2013-01-24 18:02:00,9.5,0.0,30.56,SE,134,4.0,-999.0,65,-99.99,,,0.00,weatherlink.com 1.10,2013-01-25 00:02:00,
2013-01-24 18:03:00,9.5,0.1,30.56,SE,134,4.0,5.0,65,0.00,,,0.00,Wunderground v.1.15,2013-01-25 00:03:00,
2013-01-24 18:08:00,9.5,0.1,30.56,SSE,150,4.0,6.0,65,0.00,,,0.00,Wunderground v.1.15,2013-01-25 00:08:00,
2013-01-24 18:09:00,9.5,0.1,30.56,SSE,150,4.0,6.0,65,0.00,,,0.00,Wunderground v.1.15,2013-01-25 00:09:00,
2013-01-24 18:10:00,9.5,0.4,30.56,SSE,154,4.0,6.0,66,0.00,,,0.00,Wunderground v.1.15,2013-01-25 00:10:00,
2013-01-24 18:12:00,9.5,0.1,30.55,SE,135,4.0,6.0,65,0.00,,,0.00,Wunderground v.1.15,2013-01-25 00:12:00,
2013-01-24 18:15:00,9.5,0.4,30.55,SSE,147,4.0,6.0,66,0.00,,,0.00,Wunderground v.1.15,2013-01-25 00:15:00,
2013-01-24 18:17:00,9.4,0.3,30.55,SE,134,4.0,5.0,66,0.00,,,0.00,Wunderground v.1.15,2013-01-25 00:17:00,
2013-01-24 18:18:00,9.4,0.3,30.55,SE,126,4.0,6.0,66,0.00,,,0.00,Wunderground v.1.15,2013-01-25 00:18:00,
2013-01-24 18:21:00,9.5,0.4,30.55,ESE,123,4.0,6.0,66,0.00,,,0.00,Wunderground v.1.15,2013-01-25 00:21:00,
2013-01-24 18:25:00,9.5,0.4,30.55,ESE,115,3.0,6.0,66,0.00,,,0.00,Wunderground v.1.15,2013-01-25 00:25:00,
2013-01-24 18:26:00,9.5,0.4,30.55,ESE,115,3.0,3.0,66,0.00,,,0.00,Wunderground v.1.15,2013-01-25 00:26:00,
2013-01-24 18:29:00,9.5,0.7,30.55,ESE,115,2.0,7.0,67,0.00,,,0.00,Wunderground v.1.15,2013-01-25 00:29:00,
2013-01-24 18:30:00,9.5,1.0,30.55,ESE,115,1.0,-999.0,67,-99.99,,,0.00,weatherlink.com 1.10,2013-01-25 00:30:00,
2013-01-24 18:35:00,9.5,0.7,30.54,SE,135,2.0,7.0,67,0.00,,,0.00,Wunderground v.1.15,2013-01-25 00:35:00,
2013-01-24 18:38:00,9.5,0.7,30.54,SE,133,3.0,7.0,67,0.00,,,0.00,Wunderground v.1.15,2013-01-25 00:38:00,
2013-01-24 18:43:00,9.5,1.1,30.54,SE,130,4.0,7.0,68,0.00,,,0.00,Wunderground v.1.15,2013-01-25 00:43:00,
2013-01-24 18:44:00,9.5,1.1,30.54,SE,138,3.0,7.0,68,0.00,,,0.00,Wunderground v.1.15,2013-01-25 00:44:00,
2013-01-24 18:45:00,9.5,1.1,30.54,SE,137,4.0,7.0,68,0.00,,,0.00,Wunderground v.1.15,2013-01-25 00:45:00,
2013-01-24 18:48:00,9.5,1.1,30.54,SE,133,4.0,7.0,68,0.00,,,0.00,Wunderground v.1.15,2013-01-25 00:48:00,
2013-01-24 18:50:00,9.5,1.1,30.54,SE,136,4.0,8.0,68,0.00,,,0.00,Wunderground v.1.15,2013-01-25 00:50:00,
2013-01-24 18:51:00,9.5,1.1,30.54,SE,134,4.0,8.0,68,0.00,,,0.00,Wunderground v.1.15,2013-01-25 00:51:00,
2013-01-24 18:55:00,9.6,1.5,30.54,ESE,115,4.0,8.0,69,0.00,,,0.00,Wunderground v.1.15,2013-01-25 00:55:00,
2013-01-24 18:57:00,9.6,1.5,30.54,ESE,118,3.0,4.0,69,0.00,,,0.00,Wunderground v.1.15,2013-01-25 00:57:00,
2013-01-24 18:59:00,9.6,1.5,30.54,ESE,117,3.0,4.0,69,0.00,,,0.00,Wunderground v.1.15,2013-01-25 00:59:00,
2013-01-24 19:00:00,9.6,2.0,30.54,ESE,117,0.0,-999.0,70,-99.99,,,0.00,weatherlink.com 1.10,2013-01-25 01:00:00,
2013-01-24 19:05:00,9.6,1.5,30.54,ESE,123,2.0,6.0,69,0.00,,,0.00,Wunderground v.1.15,2013-01-25 01:05:00,
2013-01-24 19:07:00,9.6,1.8,30.54,SE,124,2.0,2.0,70,0.00,,,0.00,Wunderground v.1.15,2013-01-25 01:07:00,
2013-01-24 19:09:00,9.6,2.1,30.55,SE,124,2.0,2.0,71,0.00,,,0.00,Wunderground v.1.15,2013-01-25 01:09:00,
2013-01-24 19:10:00,9.7,2.5,30.54,SE,124,2.0,2.0,72,0.00,,,0.00,Wunderground v.1.15,2013-01-25 01:10:00,
2013-01-24 19:15:00,9.8,2.0,30.54,SE,125,2.0,-999.0,71,-99.99,,,0.00,weatherlink.com 1.10,2013-01-25 01:15:00,
2013-01-24 19:16:00,9.8,2.3,30.53,SE,125,1.0,1.0,71,0.00,,,0.00,Wunderground v.1.15,2013-01-25 01:16:00,
2013-01-24 19:18:00,9.7,2.2,30.53,SE,131,2.0,6.0,71,0.00,,,0.00,Wunderground v.1.15,2013-01-25 01:18:00,
2013-01-24 19:21:00,9.6,1.8,30.53,SE,131,3.0,6.0,70,0.00,,,0.00,Wunderground v.1.15,2013-01-25 01:21:00,
2013-01-24 19:23:00,9.6,1.8,30.53,SE,131,3.0,6.0,70,0.00,,,0.00,Wunderground v.1.15,2013-01-25 01:23:00,
2013-01-24 19:26:00,9.6,1.8,30.53,SE,129,3.0,5.0,70,0.00,,,0.00,Wunderground v.1.15,2013-01-25 01:26:00,
2013-01-24 19:30:00,9.5,1.0,30.54,SE,128,4.0,-999.0,69,-99.99,,,0.00,weatherlink.com 1.10,2013-01-25 01:30:00,
2013-01-24 19:31:00,9.5,3.5,30.53,SE,128,3.0,9.0,76,0.00,,,0.00,Wunderground v.1.15,2013-01-25 01:31:00,
2013-01-24 19:34:00,9.5,1.4,30.53,SE,128,3.0,9.0,69,0.00,,,0.00,Wunderground v.1.15,2013-01-25 01:34:00,
2013-01-24 19:36:00,9.5,1.7,30.53,SE,128,2.0,2.0,70,0.00,,,0.00,Wunderground v.1.15,2013-01-25 01:36:00,
2013-01-24 19:37:00,9.5,1.7,30.53,SE,128,2.0,9.0,70,0.00,,,0.00,Wunderground v.1.15,2013-01-25 01:37:00,
2013-01-24 19:43:00,9.5,1.4,30.53,SE,129,1.0,9.0,69,0.00,,,0.00,Wunderground v.1.15,2013-01-25 01:43:00,
2013-01-24 19:44:00,9.5,1.4,30.53,SE,129,1.0,9.0,69,0.00,,,0.00,Wunderground v.1.15,2013-01-25 01:44:00,
2013-01-24 19:46:00,9.5,2.0,30.53,SE,128,4.0,-999.0,70,-99.99,,,0.00,weatherlink.com 1.10,2013-01-25 01:46:00,
2013-01-24 19:50:00,9.5,1.4,30.53,SE,128,1.0,9.0,69,0.00,,,0.00,Wunderground v.1.15,2013-01-25 01:50:00,
2013-01-24 19:55:00,9.5,1.4,30.53,SE,130,2.0,9.0,69,0.00,,,0.00,Wunderground v.1.15,2013-01-25 01:55:00,
2013-01-24 19:58:00,9.5,1.1,30.53,SE,130,1.0,2.0,68,0.00,,,0.00,Wunderground v.1.15,2013-01-25 01:58:00,
2013-01-24 20:02:00,9.5,1.4,30.53,SE,130,1.0,2.0,69,0.00,,,0.00,Wunderground v.1.15,2013-01-25 02:02:00,
2013-01-24 20:03:00,9.5,1.1,30.53,SE,130,1.0,2.0,68,0.00,,,0.00,Wunderground v.1.15,2013-01-25 02:03:00,
2013-01-24 20:06:00,9.5,1.4,30.53,SE,130,1.0,1.0,69,0.00,,,0.00,Wunderground v.1.15,2013-01-25 02:06:00,
2013-01-24 20:09:00,9.5,1.1,30.53,SE,130,1.0,2.0,68,0.00,,,0.00,Wunderground v.1.15,2013-01-25 02:09:00,
2013-01-24 20:12:00,9.5,1.1,30.53,SE,130,1.0,2.0,68,0.00,,,0.00,Wunderground v.1.15,2013-01-25 02:12:00,
2013-01-24 20:14:00,9.5,1.1,30.52,SE,130,1.0,4.0,68,0.00,,,0.00,Wunderground v.1.15,2013-01-25 02:14:00,
2013-01-24 20:15:00,9.5,1.0,30.52,SE,130,0.0,-999.0,68,-99.99,,,0.00,weatherlink.com 1.10,2013-01-25 02:15:00,
2013-01-24 20:16:00,9.5,1.1,30.52,SE,130,1.0,1.0,68,0.00,,,0.00,Wunderground v.1.15,2013-01-25 02:16:00,
2013-01-24 20:22:00,9.5,1.7,30.53,SE,130,1.0,2.0,70,0.00,,,0.00,Wunderground v.1.15,2013-01-25 02:22:00,
2013-01-24 20:23:00,9.5,1.7,30.53,SE,130,1.0,2.0,70,0.00,,,0.00,Wunderground v.1.15,2013-01-25 02:23:00,
2013-01-24 20:25:00,9.5,1.7,30.52,SE,130,0.0,2.0,70,0.00,,,0.00,Wunderground v.1.15,2013-01-25 02:25:00,
2013-01-24 20:29:00,9.5,1.4,30.51,SE,133,1.0,8.0,69,0.00,,,0.00,Wunderground v.1.15,2013-01-25 02:29:00,
2013-01-24 20:31:00,9.5,2.0,30.51,SE,133,1.0,-999.0,70,-99.99,,,0.00,weatherlink.com 1.10,2013-01-25 02:31:00,
2013-01-24 20:35:00,9.5,1.7,30.51,SE,128,2.0,8.0,70,0.00,,,0.00,Wunderground v.1.15,2013-01-25 02:35:00,
2013-01-24 20:36:00,9.5,1.7,30.51,SE,131,2.0,8.0,70,0.00,,,0.00,Wunderground v.1.15,2013-01-25 02:36:00,
2013-01-24 20:37:00,9.5,1.7,30.50,SE,131,2.0,8.0,70,0.00,,,0.00,Wunderground v.1.15,2013-01-25 02:37:00,
2013-01-24 20:38:00,9.5,1.7,30.51,SE,133,2.0,8.0,70,0.00,,,0.00,Wunderground v.1.15,2013-01-25 02:38:00,
2013-01-24 20:43:00,9.4,1.6,30.50,SE,139,3.0,8.0,70,0.00,,,0.00,Wunderground v.1.15,2013-01-25 02:43:00,
2013-01-24 20:44:00,9.5,1.7,30.50,SE,139,3.0,8.0,70,0.00,,,0.00,Wunderground v.1.15,2013-01-25 02:44:00,
2013-01-24 20:46:00,9.5,2.0,30.50,SSE,167,5.0,-999.0,70,-99.99,,,0.00,weatherlink.com 1.10,2013-01-25 02:46:00,
2013-01-24 20:51:00,9.5,2.0,30.51,South,183,2.0,8.0,71,0.00,,,0.00,Wunderground v.1.15,2013-01-25 02:51:00,
2013-01-24 20:52:00,9.5,2.6,30.50,South,183,2.0,8.0,73,0.00,,,0.00,Wunderground v.1.15,2013-01-25 02:52:00,
2013-01-24 20:53:00,9.6,3.0,30.50,South,178,2.0,8.0,74,0.00,,,0.00,Wunderground v.1.15,2013-01-25 02:53:00,
2013-01-24 20:55:00,9.6,2.4,30.50,South,169,2.0,8.0,72,0.00,,,0.00,Wunderground v.1.15,2013-01-25 02:55:00,
2013-01-24 20:57:00,9.5,2.3,30.50,SE,132,2.0,2.0,72,0.00,,,0.00,Wunderground v.1.15,2013-01-25 02:57:00,
2013-01-24 21:01:00,9.5,2.0,30.49,SE,139,2.0,-999.0,72,-99.99,,,0.00,weatherlink.com 1.10,2013-01-25 03:01:00,
2013-01-24 21:02:00,9.5,2.3,30.49,SE,139,2.0,2.0,72,0.00,,,0.00,Wunderground v.1.15,2013-01-25 03:02:00,
2013-01-24 21:03:00,9.5,2.6,30.49,SE,139,2.0,2.0,73,0.00,,,0.00,Wunderground v.1.15,2013-01-25 03:03:00,
2013-01-24 21:05:00,9.5,2.6,30.49,SE,142,2.0,5.0,73,0.00,,,0.00,Wunderground v.1.15,2013-01-25 03:05:00,
2013-01-24 21:08:00,9.5,2.9,30.49,SSE,153,2.0,2.0,74,0.00,,,0.00,Wunderground v.1.15,2013-01-25 03:08:00,
2013-01-24 21:09:00,9.5,2.9,30.49,SSE,150,2.0,2.0,74,0.00,,,0.00,Wunderground v.1.15,2013-01-25 03:09:00,
2013-01-24 21:10:00,9.4,2.8,30.49,SSE,149,2.0,5.0,74,0.00,,,0.00,Wunderground v.1.15,2013-01-25 03:10:00,
2013-01-24 21:14:00,9.5,2.9,30.49,SE,138,2.0,5.0,74,0.00,,,0.00,Wunderground v.1.15,2013-01-25 03:14:00,
2013-01-24 21:15:00,9.5,2.9,30.49,SE,138,2.0,5.0,74,0.00,,,0.00,Wunderground v.1.15,2013-01-25 03:15:00,
2013-01-24 21:18:00,9.4,2.8,30.49,SE,138,2.0,2.0,74,0.00,,,0.00,Wunderground v.1.15,2013-01-25 03:18:00,
2013-01-24 21:19:00,9.4,2.5,30.49,SE,126,2.0,4.0,73,0.00,,,0.00,Wunderground v.1.15,2013-01-25 03:19:00,
2013-01-24 21:20:00,9.4,2.5,30.49,SE,126,2.0,4.0,73,0.00,,,0.00,Wunderground v.1.15,2013-01-25 03:20:00,
2013-01-24 21:21:00,9.4,2.5,30.49,SE,126,2.0,4.0,73,0.00,,,0.00,Wunderground v.1.15,2013-01-25 03:21:00,
2013-01-24 21:25:00,9.5,2.9,30.49,SE,126,2.0,4.0,74,0.00,,,0.00,Wunderground v.1.15,2013-01-25 03:25:00,
2013-01-24 21:26:00,9.5,2.9,30.49,SE,126,2.0,4.0,74,0.00,,,0.00,Wunderground v.1.15,2013-01-25 03:26:00,
2013-01-24 21:27:00,9.5,2.9,30.49,SE,126,1.0,6.0,74,0.00,,,0.00,Wunderground v.1.15,2013-01-25 03:27:00,
2013-01-24 21:30:00,9.5,2.9,30.48,SE,127,1.0,6.0,74,0.00,,,0.00,Wunderground v.1.15,2013-01-25 03:30:00,
2013-01-24 21:31:00,9.4,2.8,30.48,SE,127,2.0,6.0,74,0.00,,,0.00,Wunderground v.1.15,2013-01-25 03:31:00,
2013-01-24 21:33:00,9.4,2.8,30.48,SE,127,2.0,6.0,74,0.00,,,0.00,Wunderground v.1.15,2013-01-25 03:33:00,
2013-01-24 21:34:00,9.4,2.8,30.48,SE,127,2.0,6.0,74,0.00,,,0.00,Wunderground v.1.15,2013-01-25 03:34:00,
2013-01-24 21:39:00,9.4,2.8,30.48,SE,129,2.0,6.0,74,0.00,,,0.00,Wunderground v.1.15,2013-01-25 03:39:00,
2013-01-24 21:40:00,9.5,2.9,30.48,SE,129,2.0,6.0,74,0.00,,,0.00,Wunderground v.1.15,2013-01-25 03:40:00,
2013-01-24 21:41:00,9.5,3.2,30.48,SE,129,2.0,6.0,75,0.00,,,0.00,Wunderground v.1.15,2013-01-25 03:41:00,
2013-01-24 21:46:00,9.6,3.6,30.48,SE,129,2.0,6.0,76,0.00,,,0.00,Wunderground v.1.15,2013-01-25 03:46:00,
2013-01-24 21:47:00,9.6,3.3,30.48,SE,129,2.0,6.0,75,0.00,,,0.00,Wunderground v.1.15,2013-01-25 03:47:00,
2013-01-24 21:51:00,9.6,3.8,30.47,SE,129,2.0,6.0,77,0.00,,,0.00,Wunderground v.1.15,2013-01-25 03:51:00,
2013-01-24 21:53:00,9.7,3.9,30.47,ENE,72,2.0,6.0,77,0.00,,,0.00,Wunderground v.1.15,2013-01-25 03:53:00,
2013-01-24 21:57:00,9.8,4.0,30.47,East,80,1.0,2.0,77,0.00,,,0.00,Wunderground v.1.15,2013-01-25 03:57:00,
2013-01-24 21:58:00,9.8,4.0,30.47,East,80,1.0,2.0,77,0.00,,,0.00,Wunderground v.1.15,2013-01-25 03:58:00,
2013-01-24 22:02:00,9.8,4.0,30.47,ESE,121,2.0,5.0,77,0.00,,,0.00,Wunderground v.1.15,2013-01-25 04:02:00,
2013-01-24 22:03:00,9.8,3.7,30.47,East,99,2.0,5.0,76,0.00,,,0.00,Wunderground v.1.15,2013-01-25 04:03:00,
2013-01-24 22:04:00,9.8,3.7,30.47,ESE,107,2.0,5.0,76,0.00,,,0.00,Wunderground v.1.15,2013-01-25 04:04:00,
2013-01-24 22:08:00,9.7,3.9,30.46,ESE,116,3.0,4.0,77,0.00,,,0.00,Wunderground v.1.15,2013-01-25 04:08:00,
2013-01-24 22:10:00,9.7,3.9,30.46,ESE,113,3.0,7.0,77,0.00,,,0.00,Wunderground v.1.15,2013-01-25 04:10:00,
2013-01-24 22:12:00,9.7,3.9,30.46,ESE,121,3.0,7.0,77,0.00,,,0.00,Wunderground v.1.15,2013-01-25 04:12:00,
2013-01-24 22:13:00,9.7,3.9,30.46,ESE,120,3.0,7.0,77,0.00,,,0.00,Wunderground v.1.15,2013-01-25 04:13:00,
2013-01-24 22:15:00,9.8,4.0,30.46,ESE,104,3.0,7.0,77,0.00,,,0.00,Wunderground v.1.15,2013-01-25 04:15:00,
2013-01-24 22:16:00,9.8,4.0,30.46,ESE,104,3.0,3.0,77,0.00,,,0.00,Wunderground v.1.15,2013-01-25 04:16:00,
2013-01-24 22:19:00,9.8,4.0,30.47,ESE,116,3.0,5.0,77,0.00,,,0.00,Wunderground v.1.15,2013-01-25 04:19:00,
2013-01-24 22:20:00,9.8,4.0,30.47,ESE,116,3.0,5.0,77,0.00,,,0.00,Wunderground v.1.15,2013-01-25 04:20:00,
2013-01-24 22:21:00,9.9,5.0,30.46,ESE,116,2.0,5.0,80,0.00,,,0.00,Wunderground v.1.15,2013-01-25 04:21:00,
2013-01-24 22:25:00,9.9,4.7,30.46,East,86,2.0,5.0,79,0.00,,,0.00,Wunderground v.1.15,2013-01-25 04:25:00,
2013-01-24 22:27:00,9.9,4.4,30.46,East,89,2.0,6.0,78,0.00,,,0.00,Wunderground v.1.15,2013-01-25 04:27:00,
2013-01-24 22:28:00,9.9,4.4,30.46,ESE,109,2.0,6.0,78,0.00,,,0.00,Wunderground v.1.15,2013-01-25 04:28:00,
2013-01-24 22:29:00,9.9,4.4,30.46,ESE,113,2.0,6.0,78,0.00,,,0.00,Wunderground v.1.15,2013-01-25 04:29:00,
2013-01-24 22:33:00,9.9,4.4,30.46,ESE,119,2.0,6.0,78,0.00,,,0.00,Wunderground v.1.15,2013-01-25 04:33:00,
2013-01-24 22:34:00,9.9,4.4,30.46,ESE,118,2.0,6.0,78,0.00,,,0.00,Wunderground v.1.15,2013-01-25 04:34:00,
2013-01-24 22:35:00,9.9,4.7,30.45,ESE,118,2.0,6.0,79,0.00,,,0.00,Wunderground v.1.15,2013-01-25 04:35:00,
2013-01-24 22:37:00,9.9,4.4,30.45,ESE,122,2.0,5.0,78,0.00,,,0.00,Wunderground v.1.15,2013-01-25 04:37:00,
2013-01-24 22:41:00,9.9,4.4,30.45,SE,126,2.0,6.0,78,0.00,,,0.00,Wunderground v.1.15,2013-01-25 04:41:00,
2013-01-24 22:42:00,9.8,4.6,30.45,SE,126,2.0,6.0,79,0.00,,,0.00,Wunderground v.1.15,2013-01-25 04:42:00,
2013-01-24 22:43:00,9.9,4.7,30.45,SE,126,2.0,6.0,79,0.00,,,0.00,Wunderground v.1.15,2013-01-25 04:43:00,
2013-01-24 22:44:00,9.9,4.7,30.45,SE,126,2.0,6.0,79,0.00,,,0.00,Wunderground v.1.15,2013-01-25 04:44:00,
2013-01-24 22:48:00,9.9,4.7,30.45,SE,128,2.0,6.0,79,0.00,,,0.00,Wunderground v.1.15,2013-01-25 04:48:00,
2013-01-24 22:50:00,9.9,4.7,30.45,SE,128,2.0,6.0,79,0.00,,,0.00,Wunderground v.1.15,2013-01-25 04:50:00,
2013-01-24 22:51:00,9.9,4.7,30.45,SE,128,2.0,6.0,79,0.00,,,0.00,Wunderground v.1.15,2013-01-25 04:51:00,
2013-01-24 22:52:00,10.0,5.1,30.45,SE,128,2.0,6.0,80,0.00,,,0.00,Wunderground v.1.15,2013-01-25 04:52:00,
2013-01-24 22:54:00,10.0,4.8,30.45,SE,128,2.0,6.0,79,0.00,,,0.00,Wunderground v.1.15,2013-01-25 04:54:00,
2013-01-24 22:57:00,10.0,5.1,30.45,SE,128,2.0,2.0,80,0.00,,,0.00,Wunderground v.1.15,2013-01-25 04:57:00,
2013-01-24 22:58:00,10.0,5.1,30.45,SE,130,2.0,4.0,80,0.00,,,0.00,Wunderground v.1.15,2013-01-25 04:58:00,
2013-01-24 22:59:00,10.0,4.8,30.45,SE,130,2.0,4.0,79,0.00,,,0.00,Wunderground v.1.15,2013-01-25 04:59:00,
2013-01-24 23:03:00,10.0,5.1,30.45,SE,131,3.0,4.0,80,0.00,,,0.00,Wunderground v.1.15,2013-01-25 05:03:00,
2013-01-24 23:04:00,10.0,5.0,30.45,SE,131,2.0,-999.0,80,-99.99,,,0.00,weatherlink.com 1.10,2013-01-25 05:04:00,
2013-01-24 23:08:00,10.1,5.2,30.45,SE,133,3.0,4.0,80,0.00,,,0.00,Wunderground v.1.15,2013-01-25 05:08:00,
2013-01-24 23:09:00,10.1,5.2,30.45,SE,133,3.0,4.0,80,0.00,,,0.00,Wunderground v.1.15,2013-01-25 05:09:00,
2013-01-24 23:10:00,10.1,4.9,30.45,SE,133,2.0,4.0,79,0.00,,,0.00,Wunderground v.1.15,2013-01-25 05:10:00,
2013-01-24 23:12:00,10.1,5.2,30.44,SE,133,2.0,5.0,80,0.00,,,0.00,Wunderground v.1.15,2013-01-25 05:12:00,
2013-01-24 23:14:00,10.1,5.2,30.44,SE,132,2.0,5.0,80,0.00,,,0.00,Wunderground v.1.15,2013-01-25 05:14:00,
2013-01-24 23:16:00,10.2,5.3,30.44,SE,132,2.0,4.0,80,0.00,,,0.00,Wunderground v.1.15,2013-01-25 05:16:00,
2013-01-24 23:19:00,10.2,5.3,30.44,SE,132,2.0,4.0,80,0.00,,,0.00,Wunderground v.1.15,2013-01-25 05:19:00,
2013-01-24 23:20:00,10.2,5.3,30.44,SE,132,2.0,4.0,80,0.00,,,0.00,Wunderground v.1.15,2013-01-25 05:20:00,
2013-01-24 23:21:00,10.3,5.4,30.44,SE,132,2.0,4.0,80,0.00,,,0.00,Wunderground v.1.15,2013-01-25 05:21:00,
2013-01-24 23:22:00,10.3,5.4,30.44,SE,132,2.0,4.0,80,0.00,,,0.00,Wunderground v.1.15,2013-01-25 05:22:00,
2013-01-24 23:26:00,10.3,5.6,30.44,SE,130,2.0,4.0,81,0.00,,,0.00,Wunderground v.1.15,2013-01-25 05:26:00,
2013-01-24 23:27:00,10.3,5.6,30.44,SE,130,2.0,7.0,81,0.00,,,0.00,Wunderground v.1.15,2013-01-25 05:27:00,
2013-01-24 23:28:00,10.4,5.7,30.44,SE,130,2.0,7.0,81,0.00,,,0.00,Wunderground v.1.15,2013-01-25 05:28:00,
2013-01-24 23:29:00,10.4,5.5,30.44,SE,130,2.0,7.0,80,0.00,,,0.00,Wunderground v.1.15,2013-01-25 05:29:00,
2013-01-24 23:33:00,10.4,5.5,30.44,SE,130,2.0,7.0,80,0.00,,,0.00,Wunderground v.1.15,2013-01-25 05:33:00,
2013-01-24 23:34:00,10.4,5.5,30.43,SE,130,2.0,7.0,80,0.00,,,0.00,Wunderground v.1.15,2013-01-25 05:34:00,
2013-01-24 23:35:00,10.4,5.5,30.43,SE,130,2.0,7.0,80,0.00,,,0.00,Wunderground v.1.15,2013-01-25 05:35:00,
2013-01-24 23:39:00,10.4,5.5,30.43,SE,130,2.0,7.0,80,0.00,,,0.00,Wunderground v.1.15,2013-01-25 05:39:00,
2013-01-24 23:41:00,10.5,5.5,30.43,SE,130,2.0,7.0,80,0.00,,,0.00,Wunderground v.1.15,2013-01-25 05:41:00,
2013-01-24 23:44:00,10.5,5.5,30.42,SE,130,2.0,7.0,80,0.00,,,0.00,Wunderground v.1.15,2013-01-25 05:44:00,
2013-01-24 23:45:00,10.5,5.5,30.42,SE,130,2.0,7.0,80,0.00,,,0.00,Wunderground v.1.15,2013-01-25 05:45:00,
2013-01-24 23:47:00,10.5,6.0,30.42,SE,129,4.0,-999.0,80,-99.99,,,0.00,weatherlink.com 1.10,2013-01-25 05:47:00,
2013-01-24 23:50:00,10.5,5.5,30.41,SE,130,2.0,7.0,80,0.00,,,0.00,Wunderground v.1.15,2013-01-25 05:50:00,
2013-01-24 23:51:00,10.5,5.5,30.41,SE,129,3.0,7.0,80,0.00,,,0.00,Wunderground v.1.15,2013-01-25 05:51:00,
2013-01-24 23:53:00,10.5,5.5,30.41,SE,130,3.0,7.0,80,0.00,,,0.00,Wunderground v.1.15,2013-01-25 05:53:00,
2013-01-24 23:54:00,10.5,5.5,30.41,SE,130,3.0,7.0,80,0.00,,,0.00,Wunderground v.1.15,2013-01-25 05:54:00,
2013-01-24 23:57:00,10.6,5.6,30.41,SE,130,3.0,5.0,80,0.00,,,0.00,Wunderground v.1.15,2013-01-25 05:57:00,